Wetterdaten: Freitag, 10.05.2019
Datum Zeit Temp. Aussen Temp. o. S. +5cm Feuchte Auss Luftdruck Regen Sonnenschein Regendauer Solar Windben Empfang
10.05.2019 00:00 10,5 C 9,4 C 8,9 C 96 % 1001,4 hPa 0,0 l/m 0 min 0 min 0 W/m 0,0 km/h (0 Bft) 100,00 %
10.05.2019 00:02 10,5 C 9,4 C 8,9 C 96 % 1001,4 hPa 0,0 l/m 0 min 0 min 0 W/m 0,0 km/h (0 Bft) 11,76 %
10.05.2019 00:04 10,5 C 9,4 C 8,9 C 96 % 1001,5 hPa 0,0 l/m 0 min 0 min 0 W/m 6,4 km/h (2 Bft) 87,80 %
10.05.2019 00:10 10,4 C 9,4 C 8,9 C 96 % 1001,6 hPa 0,0 l/m 0 min 0 min 0 W/m 12,9 km/h (3 Bft) 98,58 %
10.05.2019 00:12 10,4 C 9,4 C 8,9 C 96 % 1001,6 hPa 0,0 l/m 0 min 0 min 0 W/m 25,7 km/h (4 Bft) 100,00 %
10.05.2019 00:14 10,4 C 9,4 C 8,9 C 96 % 1001,5 hPa 0,0 l/m 0 min 0 min 0 W/m 9,7 km/h (2 Bft) 97,83 %
10.05.2019 00:16 10,4 C 9,4 C 8,9 C 96 % 1001,5 hPa 0,0 l/m 0 min 0 min 0 W/m 3,2 km/h (1 Bft) 95,74 %
10.05.2019 00:18 10,4 C 9,4 C 8,9 C 96 % 1001,6 hPa 0,0 l/m 0 min 0 min 0 W/m 3,2 km/h (1 Bft) 100,00 %
10.05.2019 00:20 10,4 C 9,4 C 8,9 C 96 % 1001,6 hPa 0,0 l/m 0 min 0 min 0 W/m 9,7 km/h (2 Bft) 97,87 %
10.05.2019 00:22 10,3 C 9,4 C 8,9 C 96 % 1001,6 hPa 0,0 l/m 0 min 0 min 0 W/m 9,7 km/h (2 Bft) 100,00 %
10.05.2019 00:24 10,3 C 9,4 C 8,9 C 96 % 1001,6 hPa 0,0 l/m 0 min 0 min 0 W/m 6,4 km/h (2 Bft) 97,87 %
10.05.2019 00:26 10,3 C 9,4 C 8,9 C 96 % 1001,6 hPa 0,0 l/m 0 min 0 min 0 W/m 9,7 km/h (2 Bft) 100,00 %
10.05.2019 00:28 10,3 C 9,4 C 8,9 C 96 % 1001,6 hPa 0,0 l/m 0 min 0 min 0 W/m 6,4 km/h (2 Bft) 100,00 %
10.05.2019 00:30 10,3 C 9,4 C 8,9 C 96 % 1001,7 hPa 0,0 l/m 0 min 0 min 0 W/m 3,2 km/h (1 Bft) 100,00 %
10.05.2019 00:32 10,3 C 9,4 C 8,9 C 96 % 1001,7 hPa 0,0 l/m 0 min 0 min 0 W/m 6,4 km/h (2 Bft) 100,00 %
10.05.2019 00:34 10,3 C 9,4 C 8,9 C 96 % 1001,7 hPa 0,0 l/m 0 min 0 min 0 W/m 3,2 km/h (1 Bft) 100,00 %
10.05.2019 00:36 10,3 C 9,4 C 8,9 C 96 % 1001,8 hPa 0,0 l/m 0 min 0 min 0 W/m 0,0 km/h (0 Bft) 100,00 %
10.05.2019 00:38 10,3 C 9,4 C 8,9 C 96 % 1001,8 hPa 0,0 l/m 0 min 0 min 0 W/m 9,7 km/h (2 Bft) 95,65 %
10.05.2019 00:40 10,3 C 9,4 C 8,9 C 96 % 1001,8 hPa 0,0 l/m 0 min 0 min 0 W/m 12,9 km/h (3 Bft) 97,87 %
10.05.2019 00:42 10,3 C 9,4 C 8,9 C 96 % 1001,8 hPa 0,0 l/m 0 min 0 min 0 W/m 9,7 km/h (2 Bft) 97,87 %
10.05.2019 00:44 10,3 C 9,4 C 8,9 C 96 % 1001,9 hPa 0,0 l/m 0 min 0 min 0 W/m 12,9 km/h (3 Bft) 97,87 %
10.05.2019 00:46 10,3 C 9,4 C 8,9 C 96 % 1001,9 hPa 0,0 l/m 0 min 0 min 0 W/m 12,9 km/h (3 Bft) 95,74 %
10.05.2019 00:48 10,2 C 9,4 C 8,9 C 96 % 1001,9 hPa 0,0 l/m 0 min 0 min 0 W/m 6,4 km/h (2 Bft) 97,87 %
10.05.2019 00:50 10,2 C 9,4 C 8,9 C 96 % 1001,9 hPa 0,0 l/m 0 min 0 min 0 W/m 9,7 km/h (2 Bft) 97,83 %
10.05.2019 00:52 10,2 C 9,4 C 8,9 C 96 % 1001,9 hPa 0,0 l/m 0 min 0 min 0 W/m 6,4 km/h (2 Bft) 97,87 %
10.05.2019 00:54 10,2 C 9,4 C 8,9 C 96 % 1001,9 hPa 0,0 l/m 0 min 0 min 0 W/m 9,7 km/h (2 Bft) 97,87 %
10.05.2019 00:56 10,2 C 9,4 C 8,9 C 96 % 1001,9 hPa 0,0 l/m 0 min 0 min 0 W/m 9,7 km/h (2 Bft) 95,74 %
10.05.2019 00:58 10,2 C 9,4 C 8,9 C 96 % 1001,8 hPa 0,0 l/m 0 min 0 min 0 W/m 12,9 km/h (3 Bft) 97,87 %
10.05.2019 01:00 10,1 C 9,4 C 8,3 C 95 % 1001,9 hPa 0,0 l/m 0 min 0 min 0 W/m 3,2 km/h (1 Bft) 97,87 %
10.05.2019 01:02 10,1 C 9,4 C 8,3 C 96 % 1001,9 hPa 0,0 l/m 0 min 0 min 0 W/m 12,9 km/h (3 Bft) 97,83 %
10.05.2019 01:04 10,0 C 9,4 C 8,3 C 95 % 1001,9 hPa 0,0 l/m 0 min 0 min 0 W/m 9,7 km/h (2 Bft) 97,87 %
10.05.2019 01:06 10,0 C 9,4 C 8,3 C 95 % 1001,9 hPa 0,0 l/m 0 min 0 min 0 W/m 6,4 km/h (2 Bft) 97,87 %
10.05.2019 01:08 9,9 C 8,9 C 8,3 C 95 % 1001,9 hPa 0,0 l/m 0 min 0 min 0 W/m 9,7 km/h (2 Bft) 93,62 %
10.05.2019 01:10 9,9 C 8,9 C 8,3 C 95 % 1002,0 hPa 0,0 l/m 0 min 0 min 0 W/m 9,7 km/h (2 Bft) 95,74 %
10.05.2019 01:12 9,9 C 8,9 C 8,3 C 95 % 1002,0 hPa 0,0 l/m 0 min 0 min 0 W/m 12,9 km/h (3 Bft) 95,65 %
10.05.2019 01:14 9,9 C 8,9 C 8,3 C 95 % 1001,9 hPa 0,0 l/m 0 min 0 min 0 W/m 12,9 km/h (3 Bft) 93,62 %
10.05.2019 01:16 9,8 C 8,9 C 8,3 C 95 % 1001,8 hPa 0,0 l/m 0 min 0 min 0 W/m 6,4 km/h (2 Bft) 95,74 %
10.05.2019 01:18 9,8 C 8,9 C 8,3 C 95 % 1001,9 hPa 0,0 l/m 0 min 0 min 0 W/m 9,7 km/h (2 Bft) 93,62 %
10.05.2019 01:20 9,8 C 8,9 C 8,3 C 95 % 1001,9 hPa 0,0 l/m 0 min 0 min 0 W/m 16,1 km/h (3 Bft) 97,87 %
10.05.2019 01:22 9,8 C 8,9 C 8,3 C 95 % 1002,0 hPa 0,0 l/m 0 min 0 min 0 W/m 9,7 km/h (2 Bft) 97,87 %
10.05.2019 01:24 9,8 C 8,9 C 8,3 C 95 % 1002,0 hPa 0,0 l/m 0 min 0 min 0 W/m 12,9 km/h (3 Bft) 95,74 %
10.05.2019 01:26 9,8 C 8,9 C 8,3 C 95 % 1001,9 hPa 0,0 l/m 0 min 0 min 0 W/m 12,9 km/h (3 Bft) 95,65 %
10.05.2019 01:28 9,7 C 8,9 C 8,3 C 95 % 1002,0 hPa 0,0 l/m 0 min 0 min 0 W/m 16,1 km/h (3 Bft) 97,87 %
10.05.2019 01:30 9,7 C 9,4 C 8,3 C 95 % 1001,9 hPa 0,0 l/m 0 min 0 min 0 W/m 12,9 km/h (3 Bft) 97,87 %
10.05.2019 01:32 9,7 C 9,4 C 8,3 C 95 % 1002,0 hPa 0,0 l/m 0 min 0 min 0 W/m 19,3 km/h (3 Bft) 93,75 %
10.05.2019 01:34 9,7 C 9,4 C 8,3 C 95 % 1002,0 hPa 0,0 l/m 0 min 0 min 0 W/m 19,3 km/h (3 Bft) 93,62 %
10.05.2019 01:36 9,7 C 9,4 C 8,3 C 95 % 1002,0 hPa 0,0 l/m 0 min 0 min 0 W/m 22,5 km/h (4 Bft) 95,65 %
10.05.2019 01:38 9,7 C 9,4 C 8,3 C 95 % 1001,9 hPa 0,0 l/m 0 min 0 min 0 W/m 16,1 km/h (3 Bft) 93,62 %
10.05.2019 01:40 9,7 C 9,4 C 8,3 C 95 % 1001,9 hPa 0,0 l/m 0 min 0 min 0 W/m 19,3 km/h (3 Bft) 97,87 %
10.05.2019 01:42 9,7 C 9,4 C 8,3 C 95 % 1001,9 hPa 0,0 l/m 0 min 0 min 0 W/m 16,1 km/h (3 Bft) 95,74 %
10.05.2019 01:44 9,7 C 9,4 C 8,3 C 95 % 1001,9 hPa 0,0 l/m 0 min 0 min 0 W/m 9,7 km/h (2 Bft) 95,74 %
10.05.2019 01:46 9,7 C 9,4 C 8,3 C 95 % 1001,9 hPa 0,0 l/m 0 min 0 min 0 W/m 12,9 km/h (3 Bft) 97,87 %
10.05.2019 01:48 9,7 C 9,4 C 8,3 C 95 % 1001,9 hPa 0,0 l/m 0 min 0 min 0 W/m 16,1 km/h (3 Bft) 97,83 %
10.05.2019 01:50 9,7 C 9,4 C 8,3 C 95 % 1002,0 hPa 0,0 l/m 0 min 0 min 0 W/m 16,1 km/h (3 Bft) 93,62 %
10.05.2019 01:52 9,7 C 9,4 C 8,3 C 95 % 1002,0 hPa 0,0 l/m 0 min 0 min 0 W/m 9,7 km/h (2 Bft) 95,74 %
10.05.2019 01:54 9,7 C 9,4 C 8,3 C 95 % 1002,0 hPa 0,0 l/m 0 min 0 min 0 W/m 12,9 km/h (3 Bft) 95,74 %
10.05.2019 01:56 9,7 C 9,4 C 8,3 C 95 % 1001,9 hPa 0,0 l/m 0 min 0 min 0 W/m 25,7 km/h (4 Bft) 93,62 %
10.05.2019 01:58 9,7 C 9,4 C 8,3 C 94 % 1001,9 hPa 0,0 l/m 0 min 0 min 0 W/m 16,1 km/h (3 Bft) 95,74 %
10.05.2019 02:00 9,7 C 9,4 C 8,3 C 94 % 1002,0 hPa 0,0 l/m 0 min 0 min 0 W/m 19,3 km/h (3 Bft) 95,65 %
10.05.2019 02:02 9,7 C 9,4 C 8,3 C 94 % 1001,9 hPa 0,0 l/m 0 min 0 min 0 W/m 22,5 km/h (4 Bft) 95,74 %
10.05.2019 02:04 9,7 C 9,4 C 8,3 C 94 % 1001,9 hPa 0,0 l/m 0 min 0 min 0 W/m 9,7 km/h (2 Bft) 95,74 %
10.05.2019 02:06 9,7 C 9,4 C 8,3 C 94 % 1002,0 hPa 0,0 l/m 0 min 0 min 0 W/m 16,1 km/h (3 Bft) 95,74 %
10.05.2019 02:08 9,7 C 9,4 C 8,3 C 94 % 1001,9 hPa 0,0 l/m 0 min 0 min 0 W/m 12,9 km/h (3 Bft) 97,87 %
10.05.2019 02:10 9,7 C 9,4 C 8,3 C 94 % 1001,9 hPa 0,0 l/m 0 min 0 min 0 W/m 22,5 km/h (4 Bft) 95,65 %
10.05.2019 02:12 9,7 C 9,4 C 8,3 C 94 % 1002,0 hPa 0,0 l/m 0 min 0 min 0 W/m 16,1 km/h (3 Bft) 97,87 %
10.05.2019 02:14 9,7 C 9,4 C 8,3 C 94 % 1002,0 hPa 0,0 l/m 0 min 0 min 0 W/m 16,1 km/h (3 Bft) 95,74 %
10.05.2019 02:16 9,7 C 9,4 C 8,3 C 93 % 1001,9 hPa 0,0 l/m 0 min 0 min 0 W/m 12,9 km/h (3 Bft) 97,87 %
10.05.2019 02:18 9,7 C 9,4 C 8,3 C 93 % 1002,0 hPa 0,0 l/m 0 min 0 min 0 W/m 19,3 km/h (3 Bft) 97,87 %
10.05.2019 02:20 9,8 C 9,4 C 8,3 C 93 % 1001,9 hPa 0,0 l/m 0 min 0 min 0 W/m 16,1 km/h (3 Bft) 97,87 %
10.05.2019 02:22 9,8 C 9,4 C 8,3 C 93 % 1001,9 hPa 0,0 l/m 0 min 0 min 0 W/m 12,9 km/h (3 Bft) 95,65 %
10.05.2019 02:24 9,8 C 9,4 C 8,3 C 93 % 1002,0 hPa 0,0 l/m 0 min 0 min 0 W/m 12,9 km/h (3 Bft) 97,87 %
10.05.2019 02:26 9,8 C 9,4 C 8,3 C 93 % 1002,0 hPa 0,0 l/m 0 min 0 min 0 W/m 16,1 km/h (3 Bft) 97,87 %
10.05.2019 02:28 9,8 C 9,4 C 8,3 C 93 % 1002,0 hPa 0,0 l/m 0 min 0 min 0 W/m 19,3 km/h (3 Bft) 97,87 %
10.05.2019 02:30 9,8 C 9,4 C 8,3 C 93 % 1001,9 hPa 0,0 l/m 0 min 0 min 0 W/m 12,9 km/h (3 Bft) 97,87 %
10.05.2019 02:32 9,8 C 9,4 C 8,3 C 93 % 1001,9 hPa 0,0 l/m 0 min 0 min 0 W/m 16,1 km/h (3 Bft) 97,87 %
10.05.2019 02:34 9,8 C 9,4 C 8,3 C 93 % 1001,9 hPa 0,0 l/m 0 min 0 min 0 W/m 16,1 km/h (3 Bft) 97,83 %
10.05.2019 02:36 9,8 C 9,4 C 8,3 C 93 % 1001,9 hPa 0,0 l/m 0 min 0 min 0 W/m 16,1 km/h (3 Bft) 100,00 %
10.05.2019 02:38 9,8 C 9,4 C 8,3 C 93 % 1001,9 hPa 0,0 l/m 0 min 0 min 0 W/m 12,9 km/h (3 Bft) 100,00 %
10.05.2019 02:40 9,8 C 9,4 C 8,3 C 93 % 1001,9 hPa 0,0 l/m 0 min 0 min 0 W/m 19,3 km/h (3 Bft) 100,00 %
10.05.2019 02:42 9,8 C 9,4 C 7,8 C 93 % 1002,0 hPa 0,0 l/m 0 min 0 min 0 W/m 16,1 km/h (3 Bft) 97,87 %
10.05.2019 02:44 9,8 C 9,4 C 7,8 C 92 % 1001,9 hPa 0,0 l/m 0 min 0 min 0 W/m 16,1 km/h (3 Bft) 100,00 %
10.05.2019 02:46 9,8 C 9,4 C 7,8 C 92 % 1001,9 hPa 0,0 l/m 0 min 0 min 0 W/m 9,7 km/h (2 Bft) 95,65 %
10.05.2019 02:48 9,8 C 9,4 C 7,8 C 92 % 1001,9 hPa 0,0 l/m 0 min 0 min 0 W/m 19,3 km/h (3 Bft) 100,00 %
10.05.2019 02:50 9,8 C 9,4 C 7,8 C 92 % 1002,0 hPa 0,0 l/m 0 min 0 min 0 W/m 12,9 km/h (3 Bft) 100,00 %
10.05.2019 02:52 9,8 C 9,4 C 8,3 C 92 % 1002,0 hPa 0,0 l/m 0 min 0 min 0 W/m 22,5 km/h (4 Bft) 97,87 %
10.05.2019 02:54 9,8 C 9,4 C 8,3 C 92 % 1002,1 hPa 0,0 l/m 0 min 0 min 0 W/m 16,1 km/h (3 Bft) 100,00 %
10.05.2019 02:56 9,8 C 9,4 C 8,3 C 92 % 1002,0 hPa 0,0 l/m 0 min 0 min 0 W/m 12,9 km/h (3 Bft) 95,74 %
10.05.2019 02:58 9,8 C 9,4 C 8,3 C 92 % 1002,0 hPa 0,0 l/m 0 min 0 min 0 W/m 16,1 km/h (3 Bft) 100,00 %
10.05.2019 03:00 9,8 C 9,4 C 8,3 C 92 % 1002,0 hPa 0,0 l/m 0 min 0 min 0 W/m 22,5 km/h (4 Bft) 100,00 %
10.05.2019 03:02 9,8 C 9,4 C 8,3 C 92 % 1002,0 hPa 0,0 l/m 0 min 0 min 0 W/m 19,3 km/h (3 Bft) 100,00 %
10.05.2019 03:04 9,8 C 9,4 C 8,3 C 92 % 1002,0 hPa 0,0 l/m 0 min 0 min 0 W/m 19,3 km/h (3 Bft) 100,00 %
10.05.2019 03:06 9,8 C 9,4 C 8,3 C 92 % 1002,1 hPa 0,0 l/m 0 min 0 min 0 W/m 19,3 km/h (3 Bft) 100,00 %
10.05.2019 03:08 9,8 C 9,4 C 8,3 C 92 % 1002,1 hPa 0,0 l/m 0 min 0 min 0 W/m 16,1 km/h (3 Bft) 100,00 %
10.05.2019 03:10 9,8 C 9,4 C 8,3 C 92 % 1002,1 hPa 0,0 l/m 0 min 0 min 0 W/m 16,1 km/h (3 Bft) 100,00 %
10.05.2019 03:12 9,8 C 9,4 C 8,3 C 92 % 1002,1 hPa 0,0 l/m 0 min 0 min 0 W/m 29,0 km/h (5 Bft) 100,00 %
10.05.2019 03:14 9,8 C 9,4 C 8,3 C 92 % 1002,1 hPa 0,0 l/m 0 min 0 min 0 W/m 16,1 km/h (3 Bft) 97,87 %
10.05.2019 03:16 9,8 C 9,4 C 8,3 C 92 % 1002,1 hPa 0,0 l/m 0 min 0 min 0 W/m 22,5 km/h (4 Bft) 97,87 %
10.05.2019 03:18 9,8 C 9,4 C 8,3 C 92 % 1002,2 hPa 0,0 l/m 0 min 0 min 0 W/m 25,7 km/h (4 Bft) 97,87 %
10.05.2019 03:20 9,8 C 9,4 C 7,8 C 91 % 1002,2 hPa 0,0 l/m 0 min 0 min 0 W/m 19,3 km/h (3 Bft) 97,83 %
10.05.2019 03:22 9,9 C 9,4 C 7,8 C 91 % 1002,1 hPa 0,0 l/m 0 min 0 min 0 W/m 12,9 km/h (3 Bft) 97,87 %
10.05.2019 03:24 9,8 C 9,4 C 7,8 C 91 % 1002,1 hPa 0,0 l/m 0 min 0 min 0 W/m 16,1 km/h (3 Bft) 97,87 %
10.05.2019 03:26 9,8 C 9,4 C 7,8 C 91 % 1002,1 hPa 0,0 l/m 0 min 0 min 0 W/m 16,1 km/h (3 Bft) 97,87 %
10.05.2019 03:28 9,9 C 9,4 C 7,8 C 91 % 1002,2 hPa 0,0 l/m 0 min 0 min 0 W/m 9,7 km/h (2 Bft) 97,87 %
10.05.2019 03:30 9,9 C 9,4 C 8,3 C 91 % 1002,2 hPa 0,0 l/m 0 min 0 min 0 W/m 12,9 km/h (3 Bft) 97,87 %
10.05.2019 03:32 9,9 C 9,4 C 7,8 C 91 % 1002,2 hPa 0,0 l/m 0 min 0 min 0 W/m 12,9 km/h (3 Bft) 95,65 %
10.05.2019 03:34 9,9 C 9,4 C 7,8 C 91 % 1002,2 hPa 0,0 l/m 0 min 0 min 0 W/m 12,9 km/h (3 Bft) 97,87 %
10.05.2019 03:36 9,9 C 9,4 C 7,8 C 91 % 1002,2 hPa 0,0 l/m 0 min 0 min 0 W/m 12,9 km/h (3 Bft) 97,87 %
10.05.2019 03:38 9,9 C 9,4 C 7,8 C 91 % 1002,2 hPa 0,0 l/m 0 min 0 min 0 W/m 9,7 km/h (2 Bft) 97,87 %
10.05.2019 03:40 9,9 C 9,4 C 8,3 C 91 % 1002,3 hPa 0,0 l/m 0 min 0 min 0 W/m 12,9 km/h (3 Bft) 97,87 %
10.05.2019 03:42 9,9 C 9,4 C 7,8 C 91 % 1002,2 hPa 0,0 l/m 0 min 0 min 0 W/m 12,9 km/h (3 Bft) 97,87 %
10.05.2019 03:44 9,9 C 9,4 C 7,8 C 91 % 1002,3 hPa 0,0 l/m 0 min 0 min 0 W/m 16,1 km/h (3 Bft) 97,83 %
10.05.2019 03:46 9,9 C 9,4 C 8,3 C 91 % 1002,3 hPa 0,0 l/m 0 min 0 min 0 W/m 22,5 km/h (4 Bft) 97,87 %
10.05.2019 03:48 9,9 C 9,4 C 8,3 C 91 % 1002,3 hPa 0,0 l/m 0 min 0 min 0 W/m 22,5 km/h (4 Bft) 95,74 %
10.05.2019 03:50 9,9 C 9,4 C 8,3 C 91 % 1002,3 hPa 0,0 l/m 0 min 0 min 0 W/m 19,3 km/h (3 Bft) 97,87 %
10.05.2019 03:52 9,9 C 9,4 C 8,3 C 91 % 1002,2 hPa 0,0 l/m 0 min 0 min 0 W/m 19,3 km/h (3 Bft) 97,87 %
10.05.2019 03:54 9,9 C 9,4 C 7,8 C 91 % 1002,3 hPa 0,0 l/m 0 min 0 min 0 W/m 19,3 km/h (3 Bft) 97,87 %
10.05.2019 03:56 9,9 C 9,4 C 7,8 C 91 % 1002,2 hPa 0,0 l/m 0 min 0 min 0 W/m 16,1 km/h (3 Bft) 97,83 %
10.05.2019 03:58 9,9 C 9,4 C 8,3 C 91 % 1002,4 hPa 0,0 l/m 0 min 0 min 0 W/m 16,1 km/h (3 Bft) 97,87 %
10.05.2019 04:00 9,9 C 9,4 C 8,3 C 91 % 1002,3 hPa 0,0 l/m 0 min 0 min 0 W/m 16,1 km/h (3 Bft) 95,74 %
10.05.2019 04:02 9,9 C 9,4 C 8,3 C 91 % 1002,3 hPa 0,0 l/m 0 min 0 min 0 W/m 16,1 km/h (3 Bft) 100,00 %
10.05.2019 04:04 9,9 C 9,4 C 8,3 C 91 % 1002,3 hPa 0,0 l/m 0 min 0 min 0 W/m 16,1 km/h (3 Bft) 100,00 %
10.05.2019 04:06 9,9 C 9,4 C 8,3 C 91 % 1002,4 hPa 0,0 l/m 0 min 0 min 0 W/m 19,3 km/h (3 Bft) 100,00 %
10.05.2019 04:08 9,9 C 9,4 C 8,3 C 91 % 1002,4 hPa 0,0 l/m 0 min 0 min 0 W/m 16,1 km/h (3 Bft) 100,00 %
10.05.2019 04:10 9,9 C 9,4 C 8,3 C 91 % 1002,4 hPa 0,0 l/m 0 min 0 min 0 W/m 16,1 km/h (3 Bft) 100,00 %
10.05.2019 04:12 9,9 C 9,4 C 8,3 C 91 % 1002,4 hPa 0,0 l/m 0 min 0 min 0 W/m 22,5 km/h (4 Bft) 100,00 %
10.05.2019 04:14 9,9 C 9,4 C 8,3 C 91 % 1002,3 hPa 0,0 l/m 0 min 0 min 0 W/m 16,1 km/h (3 Bft) 97,87 %
10.05.2019 04:16 9,9 C 9,4 C 8,3 C 91 % 1002,4 hPa 0,0 l/m 0 min 0 min 0 W/m 12,9 km/h (3 Bft) 100,00 %
10.05.2019 04:18 9,9 C 9,4 C 8,3 C 91 % 1002,4 hPa 0,0 l/m 0 min 0 min 0 W/m 16,1 km/h (3 Bft) 100,00 %
10.05.2019 04:20 9,9 C 9,4 C 8,3 C 91 % 1002,4 hPa 0,0 l/m 0 min 0 min 0 W/m 16,1 km/h (3 Bft) 97,83 %
10.05.2019 04:22 9,9 C 9,4 C 8,3 C 91 % 1002,4 hPa 0,0 l/m 0 min 0 min 0 W/m 12,9 km/h (3 Bft) 97,87 %
10.05.2019 04:24 9,9 C 9,4 C 8,3 C 91 % 1002,4 hPa 0,0 l/m 0 min 0 min 0 W/m 25,7 km/h (4 Bft) 100,00 %
10.05.2019 04:26 9,9 C 9,4 C 8,3 C 91 % 1002,4 hPa 0,0 l/m 0 min 0 min 0 W/m 29,0 km/h (5 Bft) 100,00 %
10.05.2019 04:28 9,9 C 9,4 C 8,9 C 91 % 1002,5 hPa 0,0 l/m 0 min 0 min 0 W/m 16,1 km/h (3 Bft) 91,49 %
10.05.2019 04:30 9,9 C 9,4 C 8,9 C 91 % 1002,4 hPa 0,0 l/m 0 min 0 min 0 W/m 16,1 km/h (3 Bft) 97,87 %
10.05.2019 04:32 9,9 C 9,4 C 8,9 C 91 % 1002,5 hPa 0,0 l/m 0 min 0 min 0 W/m 12,9 km/h (3 Bft) 100,00 %
10.05.2019 04:34 10,0 C 9,4 C 8,9 C 91 % 1002,5 hPa 0,0 l/m 0 min 0 min 0 W/m 12,9 km/h (3 Bft) 100,00 %
10.05.2019 04:36 10,0 C 9,4 C 8,9 C 91 % 1002,5 hPa 0,0 l/m 0 min 0 min 0 W/m 19,3 km/h (3 Bft) 97,87 %
10.05.2019 04:38 10,0 C 9,4 C 8,9 C 91 % 1002,5 hPa 0,0 l/m 0 min 0 min 0 W/m 12,9 km/h (3 Bft) 95,74 %
10.05.2019 04:40 10,0 C 9,4 C 8,9 C 90 % 1002,5 hPa 0,0 l/m 0 min 0 min 0 W/m 22,5 km/h (4 Bft) 95,74 %
10.05.2019 04:42 10,0 C 9,4 C 8,9 C 90 % 1002,6 hPa 0,0 l/m 0 min 0 min 0 W/m 22,5 km/h (4 Bft) 95,65 %
10.05.2019 04:44 10,0 C 9,4 C 8,9 C 90 % 1002,5 hPa 0,0 l/m 0 min 0 min 0 W/m 19,3 km/h (3 Bft) 93,62 %
10.05.2019 04:46 10,0 C 9,4 C 8,9 C 90 % 1002,6 hPa 0,0 l/m 0 min 0 min 0 W/m 22,5 km/h (4 Bft) 95,74 %
10.05.2019 04:48 10,0 C 9,4 C 8,9 C 90 % 1002,6 hPa 0,0 l/m 0 min 0 min 0 W/m 19,3 km/h (3 Bft) 95,74 %
10.05.2019 04:50 10,0 C 9,4 C 8,9 C 90 % 1002,6 hPa 0,0 l/m 0 min 2 min 0 W/m 19,3 km/h (3 Bft) 95,74 %
10.05.2019 04:52 10,0 C 9,4 C 8,9 C 90 % 1002,6 hPa 0,0 l/m 0 min 0 min 0 W/m 12,9 km/h (3 Bft) 95,74 %
10.05.2019 04:54 10,0 C 9,4 C 8,9 C 90 % 1002,7 hPa 0,0 l/m 0 min 2 min 0 W/m 19,3 km/h (3 Bft) 95,65 %
10.05.2019 04:56 10,0 C 8,9 C 8,3 C 90 % 1002,7 hPa 0,0 l/m 0 min 0 min 0 W/m 12,9 km/h (3 Bft) 95,74 %
10.05.2019 04:58 10,0 C 9,4 C 8,3 C 90 % 1002,7 hPa 0,0 l/m 0 min 0 min 0 W/m 9,7 km/h (2 Bft) 95,74 %
10.05.2019 05:00 10,0 C 9,4 C 8,9 C 90 % 1002,7 hPa 0,0 l/m 0 min 0 min 0 W/m 19,3 km/h (3 Bft) 93,62 %
10.05.2019 05:02 10,0 C 8,9 C 8,3 C 90 % 1002,8 hPa 0,0 l/m 0 min 0 min 0 W/m 22,5 km/h (4 Bft) 95,74 %
10.05.2019 05:04 10,0 C 8,9 C 8,3 C 90 % 1002,7 hPa 0,0 l/m 0 min 0 min 0 W/m 16,1 km/h (3 Bft) 95,74 %
10.05.2019 05:05 10,0 C 8,9 C 8,3 C 90 % 1002,8 hPa 0,0 l/m 0 min 0 min 0 W/m 22,5 km/h (4 Bft) 98,25 %
10.05.2019 05:10 9,9 C 8,9 C 8,3 C 91 % 1002,8 hPa 0,0 l/m 0 min 0 min 0 W/m 16,1 km/h (3 Bft) 98,25 %
10.05.2019 05:12 9,9 C 8,9 C 8,3 C 91 % 1002,8 hPa 0,0 l/m 0 min 0 min 0 W/m 9,7 km/h (2 Bft) 90,91 %
10.05.2019 05:17 9,9 C 8,3 C 8,3 C 91 % 1002,8 hPa 0,0 l/m 0 min 0 min 0 W/m 16,1 km/h (3 Bft) 100,00 %
10.05.2019 05:18 9,9 C 8,3 C 8,3 C 91 % 1002,8 hPa 0,0 l/m 0 min 0 min 0 W/m 9,7 km/h (2 Bft) 91,67 %
10.05.2019 05:20 9,9 C 8,3 C 7,8 C 91 % 1002,9 hPa 0,0 l/m 0 min 2 min 0 W/m 12,9 km/h (3 Bft) 95,83 %
10.05.2019 05:22 9,8 C 8,3 C 7,8 C 91 % 1002,9 hPa 0,0 l/m 0 min 2 min 0 W/m 19,3 km/h (3 Bft) 95,92 %
10.05.2019 05:24 9,8 C 8,3 C 7,8 C 91 % 1003,0 hPa 0,0 l/m 0 min 2 min 0 W/m 16,1 km/h (3 Bft) 93,88 %
10.05.2019 05:26 9,8 C 8,3 C 7,8 C 92 % 1003,0 hPa 0,0 l/m 0 min 2 min 0 W/m 9,7 km/h (2 Bft) 95,74 %
10.05.2019 05:28 9,8 C 8,3 C 7,8 C 92 % 1002,9 hPa 0,0 l/m 0 min 2 min 0 W/m 9,7 km/h (2 Bft) 93,48 %
10.05.2019 05:30 9,8 C 8,3 C 7,8 C 92 % 1003,1 hPa 0,0 l/m 0 min 2 min 0 W/m 19,3 km/h (3 Bft) 93,62 %
10.05.2019 05:32 9,7 C 7,8 C 7,8 C 92 % 1003,1 hPa 0,2 l/m 0 min 2 min 0 W/m 19,3 km/h (3 Bft) 100,00 %
10.05.2019 05:34 9,7 C 7,8 C 7,8 C 92 % 1003,1 hPa 0,0 l/m 0 min 2 min 0 W/m 12,9 km/h (3 Bft) 97,96 %
10.05.2019 05:36 9,7 C 7,8 C 7,8 C 92 % 1003,1 hPa 0,0 l/m 0 min 2 min 0 W/m 12,9 km/h (3 Bft) 100,00 %
10.05.2019 05:38 9,7 C 7,8 C 7,8 C 93 % 1003,1 hPa 0,0 l/m 0 min 2 min 0 W/m 16,1 km/h (3 Bft) 100,00 %
10.05.2019 05:40 9,7 C 7,8 C 7,8 C 93 % 1003,1 hPa 0,2 l/m 0 min 2 min 0 W/m 16,1 km/h (3 Bft) 100,00 %
10.05.2019 05:42 9,6 C 7,8 C 7,8 C 93 % 1003,2 hPa 0,0 l/m 0 min 2 min 0 W/m 19,3 km/h (3 Bft) 97,62 %
10.05.2019 05:44 9,6 C 7,8 C 7,8 C 93 % 1003,3 hPa 0,0 l/m 0 min 2 min 0 W/m 19,3 km/h (3 Bft) 97,96 %
10.05.2019 05:46 9,6 C 7,8 C 7,8 C 93 % 1003,3 hPa 0,0 l/m 0 min 2 min 0 W/m 12,9 km/h (3 Bft) 100,00 %
10.05.2019 05:48 9,6 C 7,8 C 7,8 C 93 % 1003,2 hPa 0,2 l/m 0 min 2 min 0 W/m 16,1 km/h (3 Bft) 97,92 %
10.05.2019 05:50 9,5 C 7,8 C 7,8 C 93 % 1003,3 hPa 0,0 l/m 0 min 2 min 0 W/m 12,9 km/h (3 Bft) 100,00 %
10.05.2019 05:52 9,5 C 7,8 C 7,8 C 93 % 1003,3 hPa 0,0 l/m 0 min 2 min 0 W/m 12,9 km/h (3 Bft) 97,83 %
10.05.2019 05:54 9,5 C 7,8 C 7,8 C 94 % 1003,3 hPa 0,0 l/m 0 min 2 min 0 W/m 25,7 km/h (4 Bft) 95,35 %
10.05.2019 05:56 9,5 C 8,3 C 7,8 C 94 % 1003,3 hPa 0,0 l/m 0 min 0 min 0 W/m 9,7 km/h (2 Bft) 97,96 %
10.05.2019 05:58 9,4 C 8,3 C 7,8 C 94 % 1003,3 hPa 0,0 l/m 0 min 0 min 0 W/m 9,7 km/h (2 Bft) 97,96 %
10.05.2019 06:00 9,4 C 8,3 C 7,8 C 94 % 1003,4 hPa 0,0 l/m 0 min 0 min 0 W/m 9,7 km/h (2 Bft) 95,74 %
10.05.2019 06:02 9,4 C 8,3 C 7,8 C 94 % 1003,3 hPa 0,0 l/m 0 min 0 min 0 W/m 16,1 km/h (3 Bft) 95,74 %
10.05.2019 06:04 9,4 C 8,3 C 7,8 C 94 % 1003,4 hPa 0,0 l/m 0 min 0 min 0 W/m 9,7 km/h (2 Bft) 97,83 %
10.05.2019 06:08 9,4 C 8,3 C 7,8 C 94 % 1003,6 hPa 0,0 l/m 0 min 0 min 0 W/m 16,1 km/h (3 Bft) 97,80 %
10.05.2019 06:10 9,4 C 8,3 C 7,8 C 94 % 1003,5 hPa 0,0 l/m 0 min 0 min 0 W/m 16,1 km/h (3 Bft) 95,92 %
10.05.2019 06:12 9,4 C 8,3 C 7,8 C 94 % 1003,6 hPa 0,0 l/m 0 min 0 min 0 W/m 9,7 km/h (2 Bft) 97,92 %
10.05.2019 06:14 9,4 C 8,3 C 7,8 C 94 % 1003,6 hPa 0,0 l/m 0 min 0 min 0 W/m 16,1 km/h (3 Bft) 97,83 %
10.05.2019 06:16 9,4 C 8,3 C 7,8 C 94 % 1003,6 hPa 0,0 l/m 0 min 0 min 0 W/m 12,9 km/h (3 Bft) 97,87 %
10.05.2019 06:18 9,4 C 8,3 C 7,8 C 94 % 1003,6 hPa 0,0 l/m 0 min 0 min 0 W/m 19,3 km/h (3 Bft) 95,35 %
10.05.2019 06:20 9,3 C 8,3 C 7,8 C 95 % 1003,6 hPa 0,0 l/m 0 min 0 min 0 W/m 12,9 km/h (3 Bft) 97,96 %
10.05.2019 06:22 9,3 C 8,3 C 7,8 C 95 % 1003,7 hPa 0,0 l/m 0 min 0 min 0 W/m 9,7 km/h (2 Bft) 97,96 %
10.05.2019 06:24 9,3 C 8,3 C 7,8 C 95 % 1003,7 hPa 0,0 l/m 0 min 0 min 0 W/m 16,1 km/h (3 Bft) 97,87 %
10.05.2019 06:26 9,3 C 8,3 C 7,8 C 95 % 1003,6 hPa 0,0 l/m 0 min 0 min 2 W/m 12,9 km/h (3 Bft) 95,65 %
10.05.2019 06:28 9,3 C 8,3 C 7,8 C 95 % 1003,8 hPa 0,0 l/m 0 min 0 min 5 W/m 9,7 km/h (2 Bft) 95,74 %
10.05.2019 06:30 9,3 C 8,3 C 7,8 C 95 % 1003,8 hPa 0,0 l/m 0 min 0 min 7 W/m 12,9 km/h (3 Bft) 97,67 %
10.05.2019 06:32 9,3 C 8,3 C 7,8 C 95 % 1003,8 hPa 0,0 l/m 0 min 0 min 8 W/m 9,7 km/h (2 Bft) 96,00 %
10.05.2019 06:34 9,3 C 8,3 C 7,8 C 95 % 1003,9 hPa 0,0 l/m 0 min 0 min 11 W/m 9,7 km/h (2 Bft) 97,92 %
10.05.2019 06:36 9,3 C 8,3 C 7,8 C 95 % 1003,9 hPa 0,0 l/m 0 min 0 min 11 W/m 9,7 km/h (2 Bft) 98,28 %
10.05.2019 06:38 9,3 C 8,3 C 7,8 C 95 % 1003,9 hPa 0,0 l/m 0 min 0 min 11 W/m 6,4 km/h (2 Bft) 97,14 %
10.05.2019 06:40 9,3 C 8,3 C 7,8 C 95 % 1004,0 hPa 0,0 l/m 0 min 0 min 11 W/m 9,7 km/h (2 Bft) 100,00 %
10.05.2019 06:42 9,3 C 8,3 C 7,8 C 95 % 1004,0 hPa 0,0 l/m 0 min 0 min 8 W/m 16,1 km/h (3 Bft) 100,00 %
10.05.2019 06:44 9,3 C 8,3 C 7,8 C 95 % 1004,0 hPa 0,0 l/m 0 min 0 min 7 W/m 9,7 km/h (2 Bft) 100,00 %
10.05.2019 06:46 9,3 C 8,3 C 7,8 C 95 % 1004,0 hPa 0,0 l/m 0 min 0 min 9 W/m 6,4 km/h (2 Bft) 100,00 %
10.05.2019 06:48 9,3 C 8,3 C 7,8 C 95 % 1004,0 hPa 0,0 l/m 0 min 0 min 8 W/m 12,9 km/h (3 Bft) 100,00 %
10.05.2019 06:50 9,3 C 8,3 C 7,8 C 95 % 1004,1 hPa 0,0 l/m 0 min 0 min 7 W/m 9,7 km/h (2 Bft) 100,00 %
10.05.2019 06:52 9,3 C 8,3 C 7,8 C 95 % 1004,1 hPa 0,0 l/m 0 min 0 min 6 W/m 12,9 km/h (3 Bft) 100,00 %
10.05.2019 06:54 9,3 C 8,3 C 7,8 C 95 % 1004,1 hPa 0,0 l/m 0 min 0 min 6 W/m 9,7 km/h (2 Bft) 100,00 %
10.05.2019 06:56 9,3 C 8,3 C 7,8 C 95 % 1004,1 hPa 0,0 l/m 0 min 2 min 7 W/m 6,4 km/h (2 Bft) 100,00 %
10.05.2019 06:58 9,3 C 8,3 C 7,8 C 95 % 1004,2 hPa 0,0 l/m 0 min 2 min 7 W/m 3,2 km/h (1 Bft) 97,87 %
10.05.2019 07:00 9,3 C 8,3 C 7,8 C 95 % 1004,3 hPa 0,0 l/m 0 min 2 min 6 W/m 0,0 km/h (0 Bft) 97,83 %
10.05.2019 07:02 9,3 C 8,3 C 7,8 C 95 % 1004,4 hPa 0,0 l/m 0 min 2 min 7 W/m 9,7 km/h (2 Bft) 100,00 %
10.05.2019 07:04 9,3 C 8,3 C 7,8 C 95 % 1004,4 hPa 0,0 l/m 0 min 2 min 7 W/m 6,4 km/h (2 Bft) 100,00 %
10.05.2019 07:06 9,3 C 8,3 C 7,8 C 95 % 1004,3 hPa 0,0 l/m 0 min 2 min 8 W/m 9,7 km/h (2 Bft) 98,21 %
10.05.2019 07:08 9,3 C 8,3 C 7,8 C 96 % 1004,4 hPa 0,0 l/m 0 min 2 min 14 W/m 3,2 km/h (1 Bft) 100,00 %
10.05.2019 07:10 9,3 C 8,3 C 7,8 C 96 % 1004,4 hPa 0,0 l/m 0 min 0 min 15 W/m 6,4 km/h (2 Bft) 100,00 %
10.05.2019 07:12 9,3 C 8,3 C 7,8 C 96 % 1004,4 hPa 0,0 l/m 0 min 0 min 16 W/m 3,2 km/h (1 Bft) 100,00 %
10.05.2019 07:14 9,3 C 8,3 C 7,8 C 96 % 1004,5 hPa 0,0 l/m 0 min 0 min 14 W/m 6,4 km/h (2 Bft) 100,00 %
10.05.2019 07:16 9,3 C 8,3 C 7,8 C 96 % 1004,5 hPa 0,0 l/m 0 min 0 min 13 W/m 6,4 km/h (2 Bft) 100,00 %
10.05.2019 07:18 9,3 C 8,3 C 7,8 C 96 % 1004,5 hPa 0,0 l/m 0 min 0 min 17 W/m 9,7 km/h (2 Bft) 100,00 %
10.05.2019 07:20 9,3 C 8,3 C 7,8 C 96 % 1004,5 hPa 0,0 l/m 0 min 0 min 23 W/m 6,4 km/h (2 Bft) 100,00 %
10.05.2019 07:22 9,3 C 8,3 C 7,8 C 96 % 1004,5 hPa 0,0 l/m 0 min 0 min 24 W/m 3,2 km/h (1 Bft) 100,00 %
10.05.2019 07:24 9,3 C 8,3 C 8,3 C 96 % 1004,5 hPa 0,0 l/m 0 min 0 min 28 W/m 6,4 km/h (2 Bft) 97,83 %
10.05.2019 07:26 9,3 C 8,3 C 8,3 C 96 % 1004,6 hPa 0,0 l/m 0 min 0 min 26 W/m 12,9 km/h (3 Bft) 97,87 %
10.05.2019 07:28 9,3 C 8,3 C 7,8 C 96 % 1004,6 hPa 0,0 l/m 0 min 0 min 21 W/m 12,9 km/h (3 Bft) 100,00 %
10.05.2019 07:30 9,3 C 8,3 C 7,8 C 96 % 1004,6 hPa 0,0 l/m 0 min 0 min 17 W/m 6,4 km/h (2 Bft) 100,00 %
10.05.2019 07:32 9,3 C 8,3 C 7,8 C 96 % 1004,7 hPa 0,0 l/m 0 min 0 min 13 W/m 6,4 km/h (2 Bft) 96,00 %
10.05.2019 07:34 9,3 C 8,3 C 7,8 C 96 % 1004,7 hPa 0,0 l/m 0 min 2 min 12 W/m 9,7 km/h (2 Bft) 97,87 %
10.05.2019 07:36 9,3 C 8,3 C 7,8 C 96 % 1004,7 hPa 0,0 l/m 0 min 0 min 13 W/m 6,4 km/h (2 Bft) 98,28 %
10.05.2019 07:38 9,3 C 8,3 C 8,3 C 96 % 1004,7 hPa 0,0 l/m 0 min 0 min 14 W/m 6,4 km/h (2 Bft) 100,00 %
10.05.2019 07:40 9,3 C 8,3 C 8,3 C 96 % 1004,7 hPa 0,0 l/m 0 min 0 min 17 W/m 3,2 km/h (1 Bft) 100,00 %
10.05.2019 07:42 9,4 C 8,3 C 8,3 C 96 % 1004,7 hPa 0,0 l/m 0 min 0 min 21 W/m 6,4 km/h (2 Bft) 100,00 %
10.05.2019 07:44 9,4 C 8,3 C 8,3 C 96 % 1004,8 hPa 0,0 l/m 0 min 0 min 22 W/m 6,4 km/h (2 Bft) 97,96 %
10.05.2019 07:46 9,4 C 8,3 C 8,3 C 96 % 1004,7 hPa 0,0 l/m 0 min 0 min 20 W/m 9,7 km/h (2 Bft) 97,87 %
10.05.2019 07:48 9,4 C 8,3 C 8,3 C 96 % 1004,8 hPa 0,0 l/m 0 min 0 min 19 W/m 3,2 km/h (1 Bft) 97,83 %
10.05.2019 07:50 9,4 C 8,3 C 8,3 C 96 % 1004,7 hPa 0,0 l/m 0 min 2 min 20 W/m 6,4 km/h (2 Bft) 95,74 %
10.05.2019 07:52 9,4 C 8,3 C 8,3 C 96 % 1004,7 hPa 0,2 l/m 0 min 2 min 29 W/m 3,2 km/h (1 Bft) 97,73 %
10.05.2019 07:54 9,4 C 8,3 C 8,3 C 96 % 1004,8 hPa 0,0 l/m 0 min 2 min 34 W/m 3,2 km/h (1 Bft) 97,96 %
10.05.2019 07:56 9,4 C 8,3 C 8,3 C 96 % 1004,8 hPa 0,0 l/m 0 min 2 min 37 W/m 6,4 km/h (2 Bft) 97,92 %
10.05.2019 07:58 9,4 C 8,3 C 8,3 C 96 % 1004,8 hPa 0,0 l/m 0 min 2 min 38 W/m 6,4 km/h (2 Bft) 97,87 %
10.05.2019 08:00 9,4 C 8,3 C 8,3 C 96 % 1004,9 hPa 0,0 l/m 0 min 2 min 41 W/m 6,4 km/h (2 Bft) 97,83 %
10.05.2019 08:02 9,4 C 8,3 C 8,3 C 96 % 1004,9 hPa 0,0 l/m 0 min 2 min 52 W/m 3,2 km/h (1 Bft) 97,62 %
10.05.2019 08:04 9,4 C 8,9 C 8,3 C 96 % 1004,9 hPa 0,0 l/m 0 min 2 min 57 W/m 6,4 km/h (2 Bft) 93,62 %
10.05.2019 08:06 9,4 C 8,9 C 8,3 C 96 % 1005,0 hPa 0,0 l/m 0 min 0 min 54 W/m 9,7 km/h (2 Bft) 93,44 %
10.05.2019 08:08 9,5 C 8,9 C 8,3 C 96 % 1005,0 hPa 0,0 l/m 0 min 0 min 47 W/m 6,4 km/h (2 Bft) 97,37 %
10.05.2019 08:10 9,5 C 8,9 C 8,3 C 96 % 1005,0 hPa 0,0 l/m 0 min 0 min 45 W/m 6,4 km/h (2 Bft) 91,30 %
10.05.2019 08:12 9,5 C 8,9 C 8,3 C 96 % 1005,1 hPa 0,0 l/m 0 min 0 min 54 W/m 3,2 km/h (1 Bft) 95,74 %
10.05.2019 08:14 9,5 C 8,9 C 8,3 C 96 % 1005,1 hPa 0,0 l/m 0 min 0 min 49 W/m 3,2 km/h (1 Bft) 95,24 %
10.05.2019 08:16 9,5 C 8,9 C 8,3 C 96 % 1005,1 hPa 0,0 l/m 0 min 0 min 36 W/m 6,4 km/h (2 Bft) 93,88 %
10.05.2019 08:18 9,6 C 8,9 C 8,3 C 96 % 1005,1 hPa 0,0 l/m 0 min 0 min 31 W/m 3,2 km/h (1 Bft) 95,92 %
10.05.2019 08:20 9,6 C 8,9 C 8,3 C 96 % 1005,1 hPa 0,0 l/m 0 min 0 min 34 W/m 0,0 km/h (0 Bft) 93,75 %
10.05.2019 08:22 9,6 C 8,9 C 8,3 C 96 % 1005,2 hPa 0,0 l/m 0 min 0 min 36 W/m 3,2 km/h (1 Bft) 95,65 %
10.05.2019 08:24 9,6 C 8,9 C 8,3 C 96 % 1005,2 hPa 0,0 l/m 0 min 0 min 39 W/m 3,2 km/h (1 Bft) 93,62 %
10.05.2019 08:26 9,6 C 8,9 C 8,3 C 96 % 1005,2 hPa 0,0 l/m 0 min 0 min 40 W/m 3,2 km/h (1 Bft) 93,02 %
10.05.2019 08:28 9,6 C 8,9 C 8,3 C 96 % 1005,3 hPa 0,0 l/m 0 min 2 min 39 W/m 6,4 km/h (2 Bft) 93,88 %
10.05.2019 08:30 9,6 C 8,9 C 8,3 C 96 % 1005,3 hPa 0,0 l/m 0 min 2 min 39 W/m 6,4 km/h (2 Bft) 91,84 %
10.05.2019 08:32 9,6 C 8,9 C 8,3 C 97 % 1005,3 hPa 0,0 l/m 0 min 2 min 37 W/m 6,4 km/h (2 Bft) 91,49 %
10.05.2019 08:34 9,6 C 8,9 C 8,3 C 97 % 1005,4 hPa 0,0 l/m 0 min 0 min 34 W/m 3,2 km/h (1 Bft) 93,48 %
10.05.2019 08:36 9,6 C 8,9 C 8,3 C 97 % 1005,3 hPa 0,0 l/m 0 min 0 min 32 W/m 0,0 km/h (0 Bft) 96,61 %
10.05.2019 08:38 9,6 C 8,9 C 8,3 C 97 % 1005,4 hPa 0,0 l/m 0 min 2 min 30 W/m 0,0 km/h (0 Bft) 97,14 %
10.05.2019 08:40 9,6 C 8,9 C 8,3 C 97 % 1005,4 hPa 0,0 l/m 0 min 2 min 30 W/m 3,2 km/h (1 Bft) 95,74 %
10.05.2019 08:42 9,7 C 8,9 C 8,3 C 97 % 1005,4 hPa 0,0 l/m 0 min 2 min 31 W/m 0,0 km/h (0 Bft) 95,74 %
10.05.2019 08:44 9,7 C 8,9 C 8,3 C 97 % 1005,5 hPa 0,0 l/m 0 min 0 min 38 W/m 0,0 km/h (0 Bft) 95,74 %
10.05.2019 08:46 9,7 C 8,9 C 8,3 C 97 % 1005,5 hPa 0,0 l/m 0 min 0 min 52 W/m 0,0 km/h (0 Bft) 93,48 %
10.05.2019 08:48 9,7 C 8,9 C 8,9 C 97 % 1005,5 hPa 0,0 l/m 0 min 0 min 58 W/m 0,0 km/h (0 Bft) 95,74 %
10.05.2019 08:50 9,7 C 8,9 C 8,9 C 97 % 1005,6 hPa 0,0 l/m 0 min 0 min 49 W/m 0,0 km/h (0 Bft) 95,74 %
10.05.2019 08:52 9,7 C 8,9 C 8,3 C 97 % 1005,6 hPa 0,0 l/m 0 min 2 min 42 W/m 6,4 km/h (2 Bft) 95,74 %
10.05.2019 08:54 9,7 C 8,9 C 8,3 C 97 % 1005,6 hPa 0,0 l/m 0 min 2 min 39 W/m 3,2 km/h (1 Bft) 93,62 %
10.05.2019 08:56 9,7 C 8,9 C 8,3 C 97 % 1005,7 hPa 0,0 l/m 0 min 0 min 43 W/m 6,4 km/h (2 Bft) 95,74 %
10.05.2019 08:58 9,7 C 8,9 C 8,3 C 97 % 1005,6 hPa 0,0 l/m 0 min 0 min 49 W/m 3,2 km/h (1 Bft) 95,65 %
10.05.2019 09:00 9,7 C 8,9 C 8,3 C 97 % 1005,7 hPa 0,0 l/m 0 min 0 min 54 W/m 3,2 km/h (1 Bft) 95,74 %
10.05.2019 09:02 9,7 C 8,9 C 8,3 C 97 % 1005,7 hPa 0,0 l/m 0 min 2 min 59 W/m 6,4 km/h (2 Bft) 97,87 %
10.05.2019 09:04 9,7 C 8,9 C 8,3 C 97 % 1005,7 hPa 0,0 l/m 0 min 0 min 58 W/m 0,0 km/h (0 Bft) 95,74 %
10.05.2019 09:06 9,7 C 8,9 C 8,9 C 97 % 1005,8 hPa 0,0 l/m 0 min 2 min 59 W/m 3,2 km/h (1 Bft) 96,55 %
10.05.2019 09:08 9,7 C 8,9 C 8,9 C 97 % 1005,8 hPa 0,0 l/m 0 min 0 min 67 W/m 3,2 km/h (1 Bft) 97,22 %
10.05.2019 09:10 9,7 C 8,9 C 8,9 C 97 % 1005,8 hPa 0,0 l/m 0 min 0 min 82 W/m 3,2 km/h (1 Bft) 93,48 %
10.05.2019 09:12 9,7 C 8,9 C 8,9 C 97 % 1005,8 hPa 0,0 l/m 0 min 0 min 101 W/m 3,2 km/h (1 Bft) 100,00 %
10.05.2019 09:14 9,7 C 9,4 C 8,9 C 97 % 1006,0 hPa 0,0 l/m 0 min 0 min 119 W/m 9,7 km/h (2 Bft) 100,00 %
10.05.2019 09:16 9,8 C 9,4 C 8,9 C 97 % 1006,0 hPa 0,0 l/m 0 min 0 min 122 W/m 3,2 km/h (1 Bft) 100,00 %
10.05.2019 09:18 9,8 C 9,4 C 8,9 C 97 % 1006,1 hPa 0,0 l/m 0 min 0 min 133 W/m 0,0 km/h (0 Bft) 100,00 %
10.05.2019 09:20 9,8 C 9,4 C 9,4 C 97 % 1006,1 hPa 0,0 l/m 0 min 0 min 129 W/m 6,4 km/h (2 Bft) 97,83 %
10.05.2019 09:22 9,9 C 10,0 C 9,4 C 97 % 1006,1 hPa 0,0 l/m 0 min 0 min 142 W/m 0,0 km/h (0 Bft) 100,00 %
10.05.2019 09:24 9,9 C 10,0 C 9,4 C 97 % 1006,1 hPa 0,0 l/m 0 min 0 min 177 W/m 0,0 km/h (0 Bft) 100,00 %
10.05.2019 09:26 10,0 C 10,6 C 10,0 C 97 % 1006,1 hPa 0,0 l/m 0 min 0 min 225 W/m 0,0 km/h (0 Bft) 100,00 %
10.05.2019 09:28 10,1 C 11,1 C 10,6 C 97 % 1006,1 hPa 0,0 l/m 2 min 0 min 260 W/m 9,7 km/h (2 Bft) 100,00 %
10.05.2019 09:30 10,2 C 11,1 C 10,6 C 97 % 1006,3 hPa 0,0 l/m 2 min 0 min 262 W/m 9,7 km/h (2 Bft) 100,00 %
10.05.2019 09:32 10,2 C 11,1 C 10,6 C 97 % 1006,2 hPa 0,0 l/m 0 min 0 min 177 W/m 6,4 km/h (2 Bft) 100,00 %
10.05.2019 09:34 10,3 C 10,6 C 10,0 C 97 % 1006,3 hPa 0,0 l/m 0 min 0 min 162 W/m 3,2 km/h (1 Bft) 100,00 %
10.05.2019 09:36 10,3 C 10,0 C 10,0 C 97 % 1006,3 hPa 0,0 l/m 0 min 0 min 144 W/m 3,2 km/h (1 Bft) 100,00 %
10.05.2019 09:38 10,3 C 10,0 C 10,0 C 97 % 1006,4 hPa 0,0 l/m 0 min 0 min 121 W/m 6,4 km/h (2 Bft) 100,00 %
10.05.2019 09:40 10,3 C 10,0 C 9,4 C 97 % 1006,4 hPa 0,0 l/m 0 min 0 min 111 W/m 12,9 km/h (3 Bft) 97,87 %
10.05.2019 09:42 10,3 C 10,0 C 9,4 C 97 % 1006,4 hPa 0,0 l/m 0 min 0 min 121 W/m 3,2 km/h (1 Bft) 100,00 %
10.05.2019 09:44 10,3 C 10,0 C 9,4 C 97 % 1006,4 hPa 0,0 l/m 0 min 0 min 142 W/m 0,0 km/h (0 Bft) 100,00 %
10.05.2019 09:46 10,3 C 10,0 C 10,0 C 97 % 1006,4 hPa 0,0 l/m 0 min 0 min 161 W/m 0,0 km/h (0 Bft) 100,00 %
10.05.2019 09:48 10,3 C 10,0 C 10,0 C 97 % 1006,4 hPa 0,0 l/m 0 min 0 min 181 W/m 6,4 km/h (2 Bft) 100,00 %
10.05.2019 09:50 10,3 C 10,6 C 10,0 C 97 % 1006,4 hPa 0,0 l/m 0 min 0 min 192 W/m 3,2 km/h (1 Bft) 100,00 %
10.05.2019 09:52 10,4 C 10,6 C 10,0 C 97 % 1006,5 hPa 0,0 l/m 0 min 0 min 210 W/m 6,4 km/h (2 Bft) 100,00 %
10.05.2019 09:54 10,4 C 10,6 C 10,0 C 97 % 1006,5 hPa 0,0 l/m 0 min 0 min 220 W/m 6,4 km/h (2 Bft) 100,00 %
10.05.2019 09:56 10,4 C 11,1 C 10,6 C 97 % 1006,5 hPa 0,0 l/m 0 min 0 min 220 W/m 3,2 km/h (1 Bft) 100,00 %
10.05.2019 09:58 10,4 C 10,6 C 10,0 C 97 % 1006,6 hPa 0,0 l/m 0 min 0 min 204 W/m 12,9 km/h (3 Bft) 100,00 %
10.05.2019 10:00 10,4 C 10,6 C 10,0 C 97 % 1006,5 hPa 0,0 l/m 0 min 0 min 192 W/m 3,2 km/h (1 Bft) 97,87 %
10.05.2019 10:02 10,4 C 10,6 C 10,0 C 97 % 1006,6 hPa 0,0 l/m 0 min 0 min 186 W/m 6,4 km/h (2 Bft) 100,00 %
10.05.2019 10:04 10,4 C 10,6 C 10,0 C 96 % 1006,5 hPa 0,0 l/m 0 min 0 min 184 W/m 6,4 km/h (2 Bft) 100,00 %
10.05.2019 10:06 10,5 C 10,6 C 10,0 C 96 % 1006,5 hPa 0,0 l/m 0 min 0 min 216 W/m 6,4 km/h (2 Bft) 98,28 %
10.05.2019 10:08 10,5 C 11,7 C 10,6 C 96 % 1006,5 hPa 0,0 l/m 2 min 0 min 311 W/m 3,2 km/h (1 Bft) 100,00 %
10.05.2019 10:10 10,6 C 12,8 C 11,7 C 96 % 1006,5 hPa 0,0 l/m 2 min 0 min 305 W/m 6,4 km/h (2 Bft) 100,00 %
10.05.2019 10:12 10,7 C 13,3 C 12,8 C 96 % 1006,5 hPa 0,0 l/m 2 min 0 min 531 W/m 3,2 km/h (1 Bft) 100,00 %
10.05.2019 10:14 10,8 C 12,8 C 12,2 C 96 % 1006,5 hPa 0,0 l/m 2 min 0 min 361 W/m 9,7 km/h (2 Bft) 100,00 %
10.05.2019 10:16 10,9 C 13,3 C 12,2 C 96 % 1006,6 hPa 0,0 l/m 2 min 0 min 340 W/m 3,2 km/h (1 Bft) 100,00 %
10.05.2019 10:18 11,0 C 14,4 C 12,8 C 96 % 1006,6 hPa 0,0 l/m 2 min 0 min 403 W/m 3,2 km/h (1 Bft) 100,00 %
10.05.2019 10:20 11,1 C 14,4 C 12,2 C 96 % 1006,6 hPa 0,0 l/m 2 min 0 min 396 W/m 6,4 km/h (2 Bft) 95,65 %
10.05.2019 10:22 11,2 C 13,9 C 11,7 C 95 % 1006,7 hPa 0,0 l/m 2 min 0 min 318 W/m 9,7 km/h (2 Bft) 100,00 %
10.05.2019 10:24 11,2 C 13,3 C 11,1 C 95 % 1006,6 hPa 0,0 l/m 0 min 0 min 215 W/m 6,4 km/h (2 Bft) 100,00 %
10.05.2019 10:26 11,2 C 12,2 C 10,6 C 95 % 1006,7 hPa 0,0 l/m 0 min 0 min 171 W/m 9,7 km/h (2 Bft) 100,00 %
10.05.2019 10:28 11,2 C 11,7 C 10,6 C 94 % 1006,7 hPa 0,0 l/m 0 min 0 min 178 W/m 12,9 km/h (3 Bft) 100,00 %
10.05.2019 10:30 11,2 C 11,7 C 10,6 C 94 % 1006,7 hPa 0,0 l/m 0 min 0 min 228 W/m 6,4 km/h (2 Bft) 100,00 %
10.05.2019 10:32 11,3 C 12,2 C 11,1 C 93 % 1006,8 hPa 0,0 l/m 0 min 0 min 249 W/m 6,4 km/h (2 Bft) 97,83 %
10.05.2019 10:34 11,3 C 12,2 C 11,1 C 93 % 1006,9 hPa 0,0 l/m 0 min 0 min 241 W/m 9,7 km/h (2 Bft) 100,00 %
10.05.2019 10:36 11,3 C 12,2 C 11,1 C 92 % 1006,9 hPa 0,0 l/m 0 min 0 min 221 W/m 9,7 km/h (2 Bft) 100,00 %
10.05.2019 10:38 11,3 C 12,2 C 11,1 C 92 % 1006,9 hPa 0,0 l/m 0 min 0 min 210 W/m 6,4 km/h (2 Bft) 97,14 %
10.05.2019 10:40 11,4 C 12,2 C 11,1 C 92 % 1007,0 hPa 0,0 l/m 0 min 0 min 203 W/m 12,9 km/h (3 Bft) 100,00 %
10.05.2019 10:42 11,4 C 12,2 C 10,6 C 91 % 1007,0 hPa 0,0 l/m 0 min 0 min 213 W/m 9,7 km/h (2 Bft) 100,00 %
10.05.2019 10:44 11,4 C 12,2 C 11,1 C 91 % 1007,1 hPa 0,0 l/m 0 min 0 min 239 W/m 9,7 km/h (2 Bft) 100,00 %
10.05.2019 10:46 11,4 C 12,2 C 11,1 C 91 % 1007,1 hPa 0,0 l/m 0 min 0 min 271 W/m 12,9 km/h (3 Bft) 100,00 %
10.05.2019 10:48 11,5 C 12,2 C 11,1 C 90 % 1007,1 hPa 0,0 l/m 0 min 0 min 299 W/m 6,4 km/h (2 Bft) 95,74 %
10.05.2019 10:50 11,6 C 12,8 C 11,7 C 90 % 1007,1 hPa 0,0 l/m 0 min 0 min 326 W/m 6,4 km/h (2 Bft) 95,74 %
10.05.2019 10:52 11,6 C 13,3 C 11,7 C 90 % 1007,1 hPa 0,0 l/m 2 min 0 min 348 W/m 9,7 km/h (2 Bft) 97,87 %
10.05.2019 10:54 11,7 C 13,9 C 12,2 C 90 % 1007,2 hPa 0,0 l/m 0 min 0 min 332 W/m 9,7 km/h (2 Bft) 97,87 %
10.05.2019 10:56 11,8 C 13,9 C 12,2 C 90 % 1007,1 hPa 0,0 l/m 0 min 0 min 312 W/m 9,7 km/h (2 Bft) 95,92 %
10.05.2019 10:58 11,9 C 13,9 C 12,2 C 90 % 1007,1 hPa 0,0 l/m 0 min 0 min 326 W/m 9,7 km/h (2 Bft) 93,62 %
10.05.2019 11:00 11,9 C 14,4 C 12,8 C 89 % 1007,1 hPa 0,0 l/m 2 min 0 min 386 W/m 6,4 km/h (2 Bft) 95,74 %
10.05.2019 11:02 12,0 C 14,4 C 12,8 C 89 % 1007,1 hPa 0,0 l/m 2 min 0 min 390 W/m 6,4 km/h (2 Bft) 93,62 %
10.05.2019 11:04 12,1 C 14,4 C 12,8 C 89 % 1007,1 hPa 0,0 l/m 0 min 0 min 304 W/m 6,4 km/h (2 Bft) 91,30 %
10.05.2019 11:06 12,1 C 13,9 C 11,7 C 88 % 1007,3 hPa 0,0 l/m 0 min 0 min 231 W/m 6,4 km/h (2 Bft) 93,62 %
10.05.2019 11:08 12,1 C 13,3 C 11,7 C 87 % 1007,3 hPa 0,0 l/m 0 min 0 min 182 W/m 9,7 km/h (2 Bft) 95,74 %
10.05.2019 11:10 12,2 C 12,8 C 11,1 C 87 % 1007,3 hPa 0,0 l/m 0 min 0 min 174 W/m 9,7 km/h (2 Bft) 95,74 %
10.05.2019 11:12 12,2 C 12,8 C 11,1 C 87 % 1007,2 hPa 0,0 l/m 0 min 0 min 189 W/m 6,4 km/h (2 Bft) 95,74 %
10.05.2019 11:14 12,2 C 12,8 C 11,1 C 86 % 1007,3 hPa 0,0 l/m 0 min 0 min 208 W/m 9,7 km/h (2 Bft) 93,62 %
10.05.2019 11:16 12,1 C 12,8 C 11,1 C 85 % 1007,3 hPa 0,0 l/m 0 min 0 min 229 W/m 9,7 km/h (2 Bft) 93,48 %
10.05.2019 11:18 12,1 C 12,8 C 10,6 C 84 % 1007,4 hPa 0,0 l/m 0 min 0 min 240 W/m 19,3 km/h (3 Bft) 95,74 %
10.05.2019 11:20 12,1 C 12,8 C 10,6 C 84 % 1007,4 hPa 0,0 l/m 0 min 0 min 228 W/m 9,7 km/h (2 Bft) 91,49 %
10.05.2019 11:22 12,1 C 12,8 C 11,1 C 84 % 1007,5 hPa 0,0 l/m 0 min 0 min 225 W/m 16,1 km/h (3 Bft) 93,62 %
10.05.2019 11:24 12,1 C 12,8 C 11,1 C 84 % 1007,5 hPa 0,0 l/m 0 min 0 min 236 W/m 6,4 km/h (2 Bft) 93,62 %
10.05.2019 11:26 12,1 C 12,8 C 11,1 C 84 % 1007,5 hPa 0,0 l/m 0 min 0 min 241 W/m 6,4 km/h (2 Bft) 95,65 %
10.05.2019 11:28 12,1 C 13,3 C 11,7 C 84 % 1007,6 hPa 0,0 l/m 0 min 0 min 244 W/m 6,4 km/h (2 Bft) 95,74 %
10.05.2019 11:30 12,2 C 13,3 C 11,7 C 85 % 1007,6 hPa 0,0 l/m 0 min 0 min 247 W/m 6,4 km/h (2 Bft) 95,74 %
10.05.2019 11:32 12,2 C 13,3 C 11,7 C 85 % 1007,6 hPa 0,0 l/m 0 min 0 min 236 W/m 9,7 km/h (2 Bft) 95,74 %
10.05.2019 11:34 12,2 C 13,3 C 11,7 C 85 % 1007,6 hPa 0,0 l/m 0 min 0 min 221 W/m 6,4 km/h (2 Bft) 93,62 %
10.05.2019 11:36 12,2 C 13,3 C 11,1 C 84 % 1007,7 hPa 0,0 l/m 0 min 0 min 203 W/m 6,4 km/h (2 Bft) 93,62 %
10.05.2019 11:38 12,2 C 12,8 C 11,1 C 84 % 1007,8 hPa 0,0 l/m 0 min 0 min 206 W/m 12,9 km/h (3 Bft) 93,48 %
10.05.2019 11:40 12,2 C 12,8 C 11,1 C 83 % 1007,8 hPa 0,0 l/m 0 min 0 min 190 W/m 6,4 km/h (2 Bft) 93,62 %
10.05.2019 11:42 12,2 C 12,8 C 11,1 C 84 % 1007,8 hPa 0,0 l/m 0 min 0 min 154 W/m 6,4 km/h (2 Bft) 97,87 %
10.05.2019 11:44 12,1 C 12,2 C 10,6 C 83 % 1007,8 hPa 0,0 l/m 0 min 0 min 144 W/m 6,4 km/h (2 Bft) 95,74 %
10.05.2019 11:46 12,1 C 12,2 C 10,6 C 83 % 1007,8 hPa 0,0 l/m 0 min 0 min 139 W/m 9,7 km/h (2 Bft) 97,87 %
10.05.2019 11:48 12,1 C 12,2 C 10,6 C 83 % 1007,8 hPa 0,0 l/m 0 min 0 min 144 W/m 12,9 km/h (3 Bft) 97,87 %
10.05.2019 11:50 12,1 C 12,2 C 10,6 C 82 % 1007,9 hPa 0,0 l/m 0 min 0 min 158 W/m 9,7 km/h (2 Bft) 97,83 %
10.05.2019 11:52 12,0 C 12,2 C 10,6 C 82 % 1007,8 hPa 0,0 l/m 0 min 0 min 164 W/m 6,4 km/h (2 Bft) 97,87 %
10.05.2019 11:54 12,0 C 12,2 C 10,6 C 82 % 1007,9 hPa 0,0 l/m 0 min 0 min 159 W/m 6,4 km/h (2 Bft) 95,74 %
10.05.2019 11:56 12,0 C 12,2 C 10,6 C 82 % 1007,9 hPa 0,0 l/m 0 min 0 min 159 W/m 3,2 km/h (1 Bft) 97,87 %
10.05.2019 11:58 12,1 C 12,2 C 10,6 C 83 % 1007,9 hPa 0,0 l/m 0 min 0 min 175 W/m 6,4 km/h (2 Bft) 97,87 %
10.05.2019 12:00 12,1 C 12,8 C 11,1 C 83 % 1008,0 hPa 0,0 l/m 0 min 0 min 170 W/m 3,2 km/h (1 Bft) 97,87 %
10.05.2019 12:02 12,1 C 12,2 C 11,1 C 83 % 1007,9 hPa 0,0 l/m 0 min 0 min 156 W/m 6,4 km/h (2 Bft) 97,83 %
10.05.2019 12:04 12,1 C 12,2 C 11,1 C 83 % 1008,0 hPa 0,0 l/m 0 min 0 min 149 W/m 6,4 km/h (2 Bft) 97,87 %
10.05.2019 12:07 12,1 C 12,2 C 10,6 C 83 % 1008,0 hPa 0,0 l/m 0 min 0 min 144 W/m 12,9 km/h (3 Bft) 97,18 %
10.05.2019 12:08 12,1 C 12,2 C 10,6 C 83 % 1008,0 hPa 0,0 l/m 0 min 0 min 128 W/m 6,4 km/h (2 Bft) 95,65 %
10.05.2019 12:10 12,1 C 11,7 C 10,6 C 83 % 1008,0 hPa 0,0 l/m 0 min 0 min 118 W/m 6,4 km/h (2 Bft) 97,87 %
10.05.2019 12:12 12,1 C 11,7 C 10,6 C 83 % 1008,1 hPa 0,0 l/m 0 min 0 min 109 W/m 6,4 km/h (2 Bft) 97,87 %
10.05.2019 12:14 12,1 C 11,7 C 10,6 C 83 % 1008,1 hPa 0,0 l/m 0 min 0 min 109 W/m 9,7 km/h (2 Bft) 95,65 %
10.05.2019 12:16 12,1 C 11,1 C 10,6 C 83 % 1008,1 hPa 0,0 l/m 0 min 2 min 115 W/m 6,4 km/h (2 Bft) 97,87 %
10.05.2019 12:18 12,1 C 10,0 C 10,0 C 84 % 1008,1 hPa 0,0 l/m 0 min 2 min 123 W/m 9,7 km/h (2 Bft) 95,74 %
10.05.2019 12:20 12,1 C 10,0 C 9,4 C 84 % 1008,1 hPa 0,2 l/m 0 min 2 min 131 W/m 9,7 km/h (2 Bft) 95,74 %
10.05.2019 12:22 12,0 C 9,4 C 9,4 C 84 % 1008,2 hPa 0,0 l/m 0 min 2 min 145 W/m 6,4 km/h (2 Bft) 95,74 %
10.05.2019 12:24 11,9 C 9,4 C 9,4 C 85 % 1008,2 hPa 0,0 l/m 0 min 2 min 153 W/m 6,4 km/h (2 Bft) 97,87 %
10.05.2019 12:26 11,9 C 9,4 C 8,9 C 85 % 1008,2 hPa 0,2 l/m 0 min 2 min 151 W/m 9,7 km/h (2 Bft) 97,83 %
10.05.2019 12:28 11,9 C 9,4 C 8,9 C 85 % 1008,2 hPa 0,0 l/m 0 min 2 min 160 W/m 9,7 km/h (2 Bft) 97,87 %
10.05.2019 12:30 11,8 C 9,4 C 8,9 C 85 % 1008,2 hPa 0,0 l/m 0 min 2 min 194 W/m 16,1 km/h (3 Bft) 100,00 %
10.05.2019 12:32 11,7 C 10,0 C 9,4 C 85 % 1008,2 hPa 0,0 l/m 0 min 0 min 242 W/m 16,1 km/h (3 Bft) 100,00 %
10.05.2019 12:34 11,7 C 10,6 C 10,0 C 86 % 1008,2 hPa 0,0 l/m 0 min 0 min 292 W/m 6,4 km/h (2 Bft) 100,00 %
10.05.2019 12:36 11,7 C 10,6 C 10,6 C 86 % 1008,1 hPa 0,0 l/m 0 min 0 min 319 W/m 12,9 km/h (3 Bft) 100,00 %
10.05.2019 12:38 11,7 C 11,1 C 10,6 C 86 % 1008,2 hPa 0,0 l/m 0 min 0 min 298 W/m 9,7 km/h (2 Bft) 100,00 %
10.05.2019 12:40 11,7 C 11,1 C 10,6 C 87 % 1008,2 hPa 0,0 l/m 0 min 0 min 274 W/m 16,1 km/h (3 Bft) 100,00 %
10.05.2019 12:42 11,7 C 11,1 C 10,6 C 87 % 1008,2 hPa 0,0 l/m 0 min 0 min 251 W/m 9,7 km/h (2 Bft) 100,00 %
10.05.2019 12:44 11,7 C 11,1 C 10,6 C 88 % 1008,2 hPa 0,0 l/m 0 min 0 min 234 W/m 9,7 km/h (2 Bft) 100,00 %
10.05.2019 12:46 11,8 C 11,1 C 10,6 C 88 % 1008,2 hPa 0,0 l/m 0 min 0 min 238 W/m 16,1 km/h (3 Bft) 100,00 %
10.05.2019 12:48 11,8 C 11,1 C 10,6 C 88 % 1008,2 hPa 0,0 l/m 0 min 0 min 251 W/m 16,1 km/h (3 Bft) 100,00 %
10.05.2019 12:50 11,8 C 11,1 C 10,6 C 88 % 1008,1 hPa 0,0 l/m 0 min 0 min 236 W/m 16,1 km/h (3 Bft) 97,87 %
10.05.2019 12:52 11,8 C 11,7 C 10,6 C 89 % 1008,2 hPa 0,0 l/m 0 min 0 min 222 W/m 6,4 km/h (2 Bft) 100,00 %
10.05.2019 12:54 11,8 C 11,7 C 11,1 C 89 % 1008,2 hPa 0,0 l/m 0 min 0 min 191 W/m 6,4 km/h (2 Bft) 100,00 %
10.05.2019 12:56 11,9 C 11,1 C 10,6 C 89 % 1008,2 hPa 0,0 l/m 0 min 0 min 141 W/m 12,9 km/h (3 Bft) 97,87 %
10.05.2019 12:58 11,9 C 11,1 C 10,6 C 89 % 1008,3 hPa 0,0 l/m 0 min 0 min 135 W/m 12,9 km/h (3 Bft) 100,00 %
10.05.2019 13:00 11,9 C 11,1 C 10,6 C 89 % 1008,2 hPa 0,0 l/m 0 min 2 min 148 W/m 12,9 km/h (3 Bft) 100,00 %
10.05.2019 13:02 11,9 C 10,6 C 10,6 C 89 % 1008,2 hPa 0,0 l/m 0 min 0 min 166 W/m 9,7 km/h (2 Bft) 97,87 %
10.05.2019 13:04 11,9 C 11,1 C 10,6 C 89 % 1008,2 hPa 0,0 l/m 0 min 0 min 160 W/m 9,7 km/h (2 Bft) 100,00 %
10.05.2019 13:06 11,8 C 10,6 C 10,6 C 89 % 1008,3 hPa 0,0 l/m 0 min 2 min 150 W/m 9,7 km/h (2 Bft) 100,00 %
10.05.2019 13:08 11,8 C 10,6 C 10,6 C 89 % 1008,3 hPa 0,0 l/m 0 min 0 min 152 W/m 12,9 km/h (3 Bft) 100,00 %
10.05.2019 13:10 11,8 C 10,6 C 10,6 C 89 % 1008,3 hPa 0,0 l/m 0 min 0 min 168 W/m 16,1 km/h (3 Bft) 100,00 %
10.05.2019 13:12 11,8 C 10,6 C 10,0 C 88 % 1008,3 hPa 0,0 l/m 0 min 0 min 178 W/m 12,9 km/h (3 Bft) 95,65 %
10.05.2019 13:14 11,7 C 10,6 C 10,6 C 88 % 1008,4 hPa 0,0 l/m 0 min 0 min 176 W/m 9,7 km/h (2 Bft) 97,87 %
10.05.2019 13:16 11,7 C 10,6 C 10,0 C 88 % 1008,3 hPa 0,0 l/m 0 min 0 min 164 W/m 19,3 km/h (3 Bft) 97,87 %
10.05.2019 13:18 11,7 C 10,6 C 10,0 C 87 % 1008,3 hPa 0,0 l/m 0 min 0 min 144 W/m 9,7 km/h (2 Bft) 95,74 %
10.05.2019 13:20 11,6 C 10,6 C 10,0 C 87 % 1008,3 hPa 0,0 l/m 0 min 0 min 141 W/m 16,1 km/h (3 Bft) 97,87 %
10.05.2019 13:22 11,6 C 10,6 C 10,0 C 87 % 1008,4 hPa 0,0 l/m 0 min 0 min 144 W/m 19,3 km/h (3 Bft) 95,74 %
10.05.2019 13:24 11,6 C 10,0 C 10,0 C 86 % 1008,4 hPa 0,0 l/m 0 min 0 min 144 W/m 19,3 km/h (3 Bft) 97,83 %
10.05.2019 13:26 11,5 C 10,0 C 10,0 C 86 % 1008,4 hPa 0,0 l/m 0 min 2 min 141 W/m 16,1 km/h (3 Bft) 95,74 %
10.05.2019 13:28 11,5 C 10,6 C 10,0 C 86 % 1008,3 hPa 0,0 l/m 0 min 0 min 137 W/m 6,4 km/h (2 Bft) 97,87 %
10.05.2019 13:30 11,5 C 10,6 C 10,0 C 86 % 1008,3 hPa 0,0 l/m 0 min 0 min 140 W/m 12,9 km/h (3 Bft) 97,87 %
10.05.2019 13:32 11,5 C 10,6 C 10,0 C 86 % 1008,3 hPa 0,0 l/m 0 min 0 min 143 W/m 6,4 km/h (2 Bft) 97,87 %
10.05.2019 13:34 11,6 C 10,6 C 10,0 C 86 % 1008,3 hPa 0,0 l/m 0 min 0 min 154 W/m 12,9 km/h (3 Bft) 97,87 %
10.05.2019 13:36 11,6 C 10,6 C 10,0 C 86 % 1008,3 hPa 0,0 l/m 0 min 0 min 186 W/m 6,4 km/h (2 Bft) 97,96 %
10.05.2019 13:38 11,6 C 11,1 C 10,0 C 86 % 1008,3 hPa 0,0 l/m 0 min 0 min 210 W/m 12,9 km/h (3 Bft) 95,74 %
10.05.2019 13:40 11,6 C 11,1 C 10,6 C 86 % 1008,4 hPa 0,0 l/m 0 min 0 min 228 W/m 9,7 km/h (2 Bft) 97,87 %
10.05.2019 13:42 11,6 C 11,1 C 10,6 C 87 % 1008,4 hPa 0,0 l/m 0 min 0 min 252 W/m 9,7 km/h (2 Bft) 97,87 %
10.05.2019 13:44 11,6 C 11,7 C 11,1 C 87 % 1008,4 hPa 0,0 l/m 0 min 0 min 265 W/m 6,4 km/h (2 Bft) 97,87 %
10.05.2019 13:46 11,7 C 12,2 C 11,1 C 87 % 1008,4 hPa 0,0 l/m 0 min 0 min 263 W/m 6,4 km/h (2 Bft) 95,65 %
10.05.2019 13:48 11,7 C 11,7 C 11,1 C 87 % 1008,4 hPa 0,0 l/m 0 min 0 min 257 W/m 9,7 km/h (2 Bft) 97,87 %
10.05.2019 13:50 11,8 C 11,7 C 11,1 C 87 % 1008,4 hPa 0,0 l/m 0 min 0 min 271 W/m 9,7 km/h (2 Bft) 97,87 %
10.05.2019 13:52 11,8 C 11,7 C 11,1 C 86 % 1008,4 hPa 0,0 l/m 0 min 0 min 295 W/m 6,4 km/h (2 Bft) 97,87 %
10.05.2019 13:54 11,8 C 11,7 C 11,1 C 86 % 1008,4 hPa 0,0 l/m 0 min 0 min 344 W/m 12,9 km/h (3 Bft) 100,00 %
10.05.2019 13:56 11,8 C 12,8 C 11,7 C 86 % 1008,4 hPa 0,0 l/m 2 min 0 min 408 W/m 9,7 km/h (2 Bft) 100,00 %
10.05.2019 13:58 11,9 C 13,3 C 12,2 C 86 % 1008,4 hPa 0,0 l/m 2 min 0 min 462 W/m 9,7 km/h (2 Bft) 96,61 %
10.05.2019 14:00 11,9 C 13,9 C 13,3 C 86 % 1008,4 hPa 0,0 l/m 2 min 0 min 511 W/m 3,2 km/h (1 Bft) 97,83 %
10.05.2019 14:02 12,1 C 13,3 C 12,8 C 85 % 1008,3 hPa 0,0 l/m 2 min 0 min 563 W/m 12,9 km/h (3 Bft) 97,87 %
10.05.2019 14:04 12,1 C 13,3 C 12,2 C 84 % 1008,4 hPa 0,0 l/m 0 min 0 min 394 W/m 9,7 km/h (2 Bft) 95,74 %
10.05.2019 14:06 12,2 C 13,3 C 12,2 C 84 % 1008,3 hPa 0,0 l/m 0 min 0 min 356 W/m 9,7 km/h (2 Bft) 95,74 %
10.05.2019 14:08 12,2 C 13,3 C 12,8 C 83 % 1008,3 hPa 0,0 l/m 0 min 0 min 352 W/m 6,4 km/h (2 Bft) 97,87 %
10.05.2019 14:10 12,2 C 13,3 C 12,8 C 83 % 1008,3 hPa 0,0 l/m 2 min 0 min 406 W/m 9,7 km/h (2 Bft) 97,83 %
10.05.2019 14:12 12,3 C 13,9 C 13,9 C 83 % 1008,4 hPa 0,0 l/m 2 min 0 min 497 W/m 9,7 km/h (2 Bft) 95,74 %
10.05.2019 14:14 12,4 C 15,0 C 15,0 C 83 % 1008,4 hPa 0,0 l/m 2 min 0 min 560 W/m 9,7 km/h (2 Bft) 97,87 %
10.05.2019 14:16 12,5 C 15,6 C 15,6 C 83 % 1008,4 hPa 0,0 l/m 2 min 0 min 519 W/m 6,4 km/h (2 Bft) 95,74 %
10.05.2019 14:18 12,6 C 15,0 C 15,6 C 83 % 1008,3 hPa 0,0 l/m 2 min 0 min 498 W/m 6,4 km/h (2 Bft) 97,87 %
10.05.2019 14:20 12,7 C 15,6 C 16,1 C 82 % 1008,4 hPa 0,0 l/m 2 min 0 min 496 W/m 3,2 km/h (1 Bft) 97,87 %
10.05.2019 14:22 12,8 C 16,7 C 16,7 C 82 % 1008,4 hPa 0,0 l/m 2 min 0 min 477 W/m 6,4 km/h (2 Bft) 97,83 %
10.05.2019 14:24 13,0 C 17,8 C 16,7 C 83 % 1008,3 hPa 0,0 l/m 2 min 0 min 465 W/m 6,4 km/h (2 Bft) 97,87 %
10.05.2019 14:26 13,2 C 18,9 C 17,2 C 83 % 1008,3 hPa 0,0 l/m 2 min 0 min 503 W/m 6,4 km/h (2 Bft) 97,87 %
10.05.2019 14:28 13,3 C 18,3 C 16,7 C 83 % 1008,4 hPa 0,0 l/m 2 min 0 min 618 W/m 6,4 km/h (2 Bft) 97,87 %
10.05.2019 14:30 13,4 C 18,3 C 16,7 C 82 % 1008,4 hPa 0,0 l/m 2 min 0 min 660 W/m 9,7 km/h (2 Bft) 97,87 %
10.05.2019 14:32 13,5 C 18,9 C 17,8 C 82 % 1008,4 hPa 0,0 l/m 2 min 0 min 636 W/m 9,7 km/h (2 Bft) 93,62 %
10.05.2019 14:34 13,6 C 19,4 C 17,2 C 81 % 1008,4 hPa 0,0 l/m 2 min 0 min 673 W/m 9,7 km/h (2 Bft) 97,83 %
10.05.2019 14:36 13,7 C 19,4 C 17,8 C 79 % 1008,4 hPa 0,0 l/m 2 min 0 min 1077 W/m 16,1 km/h (3 Bft) 97,87 %
10.05.2019 14:38 13,9 C 18,9 C 17,2 C 78 % 1008,4 hPa 0,0 l/m 2 min 0 min 1090 W/m 12,9 km/h (3 Bft) 100,00 %
10.05.2019 14:40 14,1 C 18,9 C 18,3 C 78 % 1008,4 hPa 0,0 l/m 2 min 0 min 1026 W/m 9,7 km/h (2 Bft) 100,00 %
10.05.2019 14:42 14,2 C 18,9 C 18,9 C 77 % 1008,4 hPa 0,0 l/m 2 min 0 min 971 W/m 19,3 km/h (3 Bft) 100,00 %
10.05.2019 14:44 14,2 C 20,0 C 19,4 C 77 % 1008,4 hPa 0,0 l/m 2 min 0 min 940 W/m 9,7 km/h (2 Bft) 100,00 %
10.05.2019 14:46 14,3 C 18,9 C 18,3 C 77 % 1008,4 hPa 0,0 l/m 2 min 0 min 956 W/m 12,9 km/h (3 Bft) 97,83 %
10.05.2019 14:48 14,4 C 17,8 C 17,2 C 76 % 1008,5 hPa 0,0 l/m 2 min 0 min 975 W/m 19,3 km/h (3 Bft) 100,00 %
10.05.2019 14:50 14,5 C 18,9 C 18,3 C 75 % 1008,4 hPa 0,0 l/m 2 min 0 min 1003 W/m 12,9 km/h (3 Bft) 95,74 %
10.05.2019 14:52 14,6 C 20,0 C 18,9 C 76 % 1008,4 hPa 0,0 l/m 2 min 0 min 982 W/m 9,7 km/h (2 Bft) 100,00 %
10.05.2019 14:54 14,7 C 20,6 C 18,3 C 75 % 1008,4 hPa 0,0 l/m 2 min 0 min 970 W/m 9,7 km/h (2 Bft) 97,87 %
10.05.2019 14:56 14,9 C 21,1 C 17,8 C 76 % 1008,4 hPa 0,0 l/m 2 min 0 min 941 W/m 9,7 km/h (2 Bft) 97,83 %
10.05.2019 14:58 15,0 C 20,6 C 16,7 C 76 % 1008,3 hPa 0,0 l/m 2 min 0 min 896 W/m 9,7 km/h (2 Bft) 97,87 %
10.05.2019 15:00 15,2 C 21,1 C 16,7 C 76 % 1008,3 hPa 0,0 l/m 2 min 0 min 891 W/m 9,7 km/h (2 Bft) 97,87 %
10.05.2019 15:02 15,3 C 20,0 C 16,1 C 75 % 1008,3 hPa 0,0 l/m 2 min 0 min 892 W/m 9,7 km/h (2 Bft) 100,00 %
10.05.2019 15:04 15,4 C 21,1 C 16,1 C 74 % 1008,3 hPa 0,0 l/m 2 min 0 min 908 W/m 12,9 km/h (3 Bft) 100,00 %
10.05.2019 15:06 15,5 C 20,0 C 16,1 C 75 % 1008,3 hPa 0,0 l/m 2 min 0 min 932 W/m 12,9 km/h (3 Bft) 97,87 %
10.05.2019 15:08 15,6 C 18,9 C 15,6 C 73 % 1008,2 hPa 0,0 l/m 2 min 0 min 937 W/m 9,7 km/h (2 Bft) 97,83 %
10.05.2019 15:10 15,6 C 18,9 C 15,6 C 73 % 1008,3 hPa 0,0 l/m 2 min 0 min 924 W/m 9,7 km/h (2 Bft) 97,87 %
10.05.2019 15:12 15,6 C 17,8 C 15,6 C 70 % 1008,3 hPa 0,0 l/m 2 min 0 min 451 W/m 16,1 km/h (3 Bft) 100,00 %
10.05.2019 15:14 15,7 C 20,0 C 15,6 C 71 % 1008,2 hPa 0,0 l/m 2 min 0 min 843 W/m 16,1 km/h (3 Bft) 100,00 %
10.05.2019 15:16 15,7 C 18,9 C 15,6 C 71 % 1008,3 hPa 0,0 l/m 2 min 0 min 926 W/m 16,1 km/h (3 Bft) 100,00 %
10.05.2019 15:18 15,7 C 17,8 C 15,0 C 70 % 1008,3 hPa 0,0 l/m 2 min 0 min 735 W/m 12,9 km/h (3 Bft) 97,87 %
10.05.2019 15:20 15,7 C 16,7 C 15,0 C 70 % 1008,3 hPa 0,0 l/m 0 min 0 min 263 W/m 9,7 km/h (2 Bft) 95,65 %
10.05.2019 15:22 15,7 C 16,7 C 15,0 C 70 % 1008,3 hPa 0,0 l/m 0 min 0 min 264 W/m 6,4 km/h (2 Bft) 95,74 %
10.05.2019 15:24 15,7 C 16,7 C 15,0 C 71 % 1008,4 hPa 0,0 l/m 0 min 0 min 278 W/m 6,4 km/h (2 Bft) 95,74 %
10.05.2019 15:26 15,7 C 16,1 C 15,0 C 72 % 1008,3 hPa 0,0 l/m 0 min 0 min 193 W/m 6,4 km/h (2 Bft) 95,74 %
10.05.2019 15:28 15,7 C 15,6 C 15,0 C 71 % 1008,4 hPa 0,0 l/m 0 min 0 min 157 W/m 9,7 km/h (2 Bft) 95,74 %
10.05.2019 15:30 15,7 C 15,6 C 14,4 C 71 % 1008,5 hPa 0,0 l/m 0 min 0 min 155 W/m 12,9 km/h (3 Bft) 95,74 %
10.05.2019 15:32 15,6 C 15,0 C 14,4 C 71 % 1008,5 hPa 0,0 l/m 0 min 0 min 153 W/m 9,7 km/h (2 Bft) 95,65 %
10.05.2019 15:34 15,5 C 15,0 C 14,4 C 72 % 1008,5 hPa 0,0 l/m 0 min 0 min 165 W/m 12,9 km/h (3 Bft) 95,74 %
10.05.2019 15:36 15,4 C 14,4 C 14,4 C 70 % 1008,5 hPa 0,0 l/m 0 min 0 min 188 W/m 9,7 km/h (2 Bft) 93,62 %
10.05.2019 15:38 15,3 C 14,4 C 14,4 C 71 % 1008,5 hPa 0,0 l/m 0 min 0 min 175 W/m 12,9 km/h (3 Bft) 95,74 %
10.05.2019 15:40 15,1 C 13,9 C 13,3 C 72 % 1008,6 hPa 0,0 l/m 0 min 0 min 139 W/m 19,3 km/h (3 Bft) 95,74 %
10.05.2019 15:42 14,9 C 13,3 C 13,3 C 73 % 1008,6 hPa 0,0 l/m 0 min 0 min 97 W/m 16,1 km/h (3 Bft) 95,74 %
10.05.2019 15:44 14,7 C 12,8 C 12,8 C 74 % 1008,7 hPa 0,0 l/m 0 min 0 min 76 W/m 12,9 km/h (3 Bft) 95,65 %
10.05.2019 15:46 14,4 C 12,8 C 12,8 C 73 % 1008,7 hPa 0,0 l/m 0 min 0 min 74 W/m 16,1 km/h (3 Bft) 96,00 %
10.05.2019 15:48 14,2 C 12,8 C 12,2 C 74 % 1008,7 hPa 0,0 l/m 0 min 0 min 122 W/m 12,9 km/h (3 Bft) 95,74 %
10.05.2019 15:50 14,2 C 12,8 C 12,2 C 75 % 1008,8 hPa 0,0 l/m 0 min 2 min 215 W/m 16,1 km/h (3 Bft) 93,62 %
10.05.2019 15:52 14,0 C 13,3 C 12,2 C 76 % 1008,8 hPa 0,0 l/m 0 min 2 min 244 W/m 9,7 km/h (2 Bft) 95,74 %
10.05.2019 15:54 13,9 C 13,3 C 12,2 C 76 % 1008,7 hPa 0,0 l/m 0 min 2 min 267 W/m 16,1 km/h (3 Bft) 97,83 %
10.05.2019 15:56 13,7 C 13,3 C 12,8 C 77 % 1008,8 hPa 0,0 l/m 0 min 2 min 274 W/m 9,7 km/h (2 Bft) 97,87 %
10.05.2019 15:58 13,7 C 13,9 C 12,8 C 78 % 1008,8 hPa 0,0 l/m 0 min 0 min 302 W/m 16,1 km/h (3 Bft) 97,87 %
10.05.2019 16:00 13,7 C 14,4 C 12,8 C 78 % 1008,7 hPa 0,0 l/m 2 min 0 min 384 W/m 12,9 km/h (3 Bft) 97,87 %
10.05.2019 16:02 13,6 C 15,6 C 13,9 C 78 % 1008,7 hPa 0,0 l/m 2 min 0 min 397 W/m 9,7 km/h (2 Bft) 97,87 %
10.05.2019 16:04 13,7 C 16,7 C 14,4 C 79 % 1008,8 hPa 0,0 l/m 2 min 0 min 856 W/m 12,9 km/h (3 Bft) 97,14 %
10.05.2019 16:06 13,8 C 16,7 C 14,4 C 77 % 1008,7 hPa 0,0 l/m 2 min 0 min 548 W/m 16,1 km/h (3 Bft) 98,28 %
10.05.2019 16:08 13,9 C 16,7 C 14,4 C 77 % 1008,7 hPa 0,0 l/m 2 min 0 min 436 W/m 16,1 km/h (3 Bft) 97,22 %
10.05.2019 16:10 14,0 C 16,1 C 14,4 C 76 % 1008,6 hPa 0,0 l/m 0 min 0 min 314 W/m 12,9 km/h (3 Bft) 97,83 %
10.05.2019 16:12 14,1 C 15,6 C 14,4 C 75 % 1008,7 hPa 0,0 l/m 0 min 0 min 315 W/m 6,4 km/h (2 Bft) 97,87 %
10.05.2019 16:14 14,2 C 15,6 C 14,4 C 76 % 1008,8 hPa 0,0 l/m 0 min 0 min 310 W/m 9,7 km/h (2 Bft) 97,87 %
10.05.2019 16:16 14,2 C 15,0 C 13,9 C 75 % 1008,7 hPa 0,0 l/m 0 min 0 min 301 W/m 9,7 km/h (2 Bft) 97,87 %
10.05.2019 16:18 14,2 C 15,6 C 13,9 C 75 % 1008,7 hPa 0,0 l/m 0 min 0 min 320 W/m 12,9 km/h (3 Bft) 97,87 %
10.05.2019 16:20 14,2 C 15,6 C 13,9 C 76 % 1008,7 hPa 0,0 l/m 2 min 0 min 330 W/m 9,7 km/h (2 Bft) 95,74 %
10.05.2019 16:22 14,2 C 16,1 C 14,4 C 75 % 1008,7 hPa 0,0 l/m 2 min 0 min 482 W/m 9,7 km/h (2 Bft) 95,65 %
10.05.2019 16:24 14,4 C 16,7 C 15,0 C 75 % 1008,7 hPa 0,0 l/m 2 min 0 min 834 W/m 6,4 km/h (2 Bft) 95,74 %
10.05.2019 16:26 14,6 C 16,7 C 15,0 C 75 % 1008,7 hPa 0,0 l/m 2 min 0 min 837 W/m 12,9 km/h (3 Bft) 91,49 %
10.05.2019 16:28 14,6 C 16,1 C 15,0 C 73 % 1008,7 hPa 0,0 l/m 2 min 0 min 559 W/m 9,7 km/h (2 Bft) 95,74 %
10.05.2019 16:30 14,7 C 16,7 C 15,0 C 73 % 1008,6 hPa 0,0 l/m 2 min 0 min 517 W/m 6,4 km/h (2 Bft) 93,62 %
10.05.2019 16:32 14,8 C 16,7 C 15,6 C 74 % 1008,6 hPa 0,0 l/m 2 min 0 min 515 W/m 6,4 km/h (2 Bft) 95,65 %
10.05.2019 16:34 14,9 C 16,7 C 15,0 C 73 % 1008,7 hPa 0,0 l/m 2 min 0 min 349 W/m 9,7 km/h (2 Bft) 95,74 %
10.05.2019 16:36 14,9 C 16,1 C 15,0 C 72 % 1008,7 hPa 0,0 l/m 0 min 0 min 295 W/m 12,9 km/h (3 Bft) 93,22 %
10.05.2019 16:38 15,0 C 16,1 C 15,0 C 72 % 1008,6 hPa 0,0 l/m 2 min 0 min 619 W/m 9,7 km/h (2 Bft) 97,14 %
10.05.2019 16:40 15,2 C 16,7 C 15,6 C 72 % 1008,7 hPa 0,0 l/m 2 min 0 min 803 W/m 9,7 km/h (2 Bft) 97,87 %
10.05.2019 16:42 15,3 C 17,2 C 15,6 C 73 % 1008,6 hPa 0,0 l/m 2 min 0 min 732 W/m 12,9 km/h (3 Bft) 93,62 %
10.05.2019 16:44 15,6 C 17,2 C 15,6 C 73 % 1008,6 hPa 0,0 l/m 2 min 0 min 656 W/m 12,9 km/h (3 Bft) 95,65 %
10.05.2019 16:46 15,7 C 17,2 C 15,0 C 71 % 1008,6 hPa 0,0 l/m 2 min 0 min 689 W/m 12,9 km/h (3 Bft) 95,74 %
10.05.2019 16:48 15,8 C 17,2 C 15,0 C 74 % 1008,5 hPa 0,0 l/m 2 min 0 min 670 W/m 9,7 km/h (2 Bft) 97,87 %
10.05.2019 16:50 16,0 C 17,2 C 15,6 C 73 % 1008,6 hPa 0,0 l/m 2 min 0 min 688 W/m 9,7 km/h (2 Bft) 97,87 %
10.05.2019 16:52 16,1 C 16,7 C 15,6 C 69 % 1008,5 hPa 0,0 l/m 2 min 0 min 689 W/m 9,7 km/h (2 Bft) 95,74 %
10.05.2019 16:54 16,2 C 16,7 C 15,6 C 67 % 1008,5 hPa 0,0 l/m 2 min 0 min 687 W/m 9,7 km/h (2 Bft) 97,87 %
10.05.2019 16:56 16,2 C 16,7 C 15,6 C 67 % 1008,5 hPa 0,0 l/m 2 min 0 min 691 W/m 12,9 km/h (3 Bft) 97,83 %
10.05.2019 16:58 16,3 C 16,7 C 15,6 C 67 % 1008,5 hPa 0,0 l/m 2 min 0 min 688 W/m 12,9 km/h (3 Bft) 97,87 %
10.05.2019 17:00 16,4 C 16,7 C 15,0 C 66 % 1008,5 hPa 0,0 l/m 2 min 0 min 570 W/m 9,7 km/h (2 Bft) 97,87 %
10.05.2019 17:02 16,3 C 16,1 C 15,0 C 64 % 1008,5 hPa 0,0 l/m 2 min 0 min 379 W/m 12,9 km/h (3 Bft) 100,00 %
10.05.2019 17:04 16,4 C 16,1 C 15,0 C 67 % 1008,6 hPa 0,0 l/m 0 min 0 min 223 W/m 12,9 km/h (3 Bft) 100,00 %
10.05.2019 17:06 16,3 C 16,1 C 15,0 C 67 % 1008,6 hPa 0,0 l/m 0 min 0 min 273 W/m 9,7 km/h (2 Bft) 100,00 %
10.05.2019 17:08 16,3 C 16,7 C 15,0 C 66 % 1008,7 hPa 0,0 l/m 2 min 0 min 417 W/m 6,4 km/h (2 Bft) 100,00 %
10.05.2019 17:10 16,4 C 17,2 C 15,6 C 67 % 1008,6 hPa 0,0 l/m 2 min 0 min 751 W/m 6,4 km/h (2 Bft) 97,87 %
10.05.2019 17:12 16,4 C 17,2 C 15,6 C 67 % 1008,6 hPa 0,0 l/m 2 min 0 min 308 W/m 9,7 km/h (2 Bft) 95,74 %
10.05.2019 17:14 16,5 C 17,2 C 15,6 C 67 % 1008,7 hPa 0,0 l/m 2 min 0 min 529 W/m 9,7 km/h (2 Bft) 100,00 %
10.05.2019 17:16 16,6 C 17,2 C 16,1 C 66 % 1008,7 hPa 0,0 l/m 2 min 0 min 668 W/m 16,1 km/h (3 Bft) 100,00 %
10.05.2019 17:18 16,6 C 17,2 C 16,1 C 64 % 1008,6 hPa 0,0 l/m 2 min 0 min 621 W/m 12,9 km/h (3 Bft) 100,00 %
10.05.2019 17:20 16,6 C 16,7 C 15,6 C 64 % 1008,7 hPa 0,0 l/m 2 min 0 min 292 W/m 16,1 km/h (3 Bft) 100,00 %
10.05.2019 17:22 16,6 C 16,7 C 15,6 C 66 % 1008,7 hPa 0,0 l/m 0 min 0 min 209 W/m 9,7 km/h (2 Bft) 100,00 %
10.05.2019 17:24 16,6 C 16,1 C 15,0 C 65 % 1008,7 hPa 0,0 l/m 0 min 0 min 183 W/m 9,7 km/h (2 Bft) 100,00 %
10.05.2019 17:26 16,6 C 16,1 C 15,0 C 64 % 1008,6 hPa 0,0 l/m 0 min 0 min 170 W/m 16,1 km/h (3 Bft) 100,00 %
10.05.2019 17:28 16,5 C 15,6 C 15,0 C 65 % 1008,6 hPa 0,0 l/m 0 min 0 min 150 W/m 12,9 km/h (3 Bft) 100,00 %
10.05.2019 17:30 16,4 C 15,6 C 14,4 C 65 % 1008,7 hPa 0,0 l/m 0 min 0 min 146 W/m 9,7 km/h (2 Bft) 100,00 %
10.05.2019 17:32 16,3 C 15,0 C 14,4 C 65 % 1008,7 hPa 0,0 l/m 0 min 0 min 147 W/m 9,7 km/h (2 Bft) 97,83 %
10.05.2019 17:34 16,1 C 15,0 C 14,4 C 64 % 1008,7 hPa 0,0 l/m 0 min 0 min 158 W/m 9,7 km/h (2 Bft) 97,87 %
10.05.2019 17:36 16,0 C 15,0 C 14,4 C 65 % 1008,6 hPa 0,0 l/m 0 min 0 min 170 W/m 6,4 km/h (2 Bft) 98,31 %
10.05.2019 17:38 15,9 C 15,0 C 14,4 C 66 % 1008,6 hPa 0,0 l/m 0 min 0 min 140 W/m 12,9 km/h (3 Bft) 97,14 %
10.05.2019 17:40 15,8 C 15,0 C 14,4 C 65 % 1008,6 hPa 0,0 l/m 0 min 0 min 108 W/m 9,7 km/h (2 Bft) 97,87 %
10.05.2019 17:42 15,7 C 14,4 C 13,9 C 66 % 1008,7 hPa 0,0 l/m 0 min 0 min 72 W/m 9,7 km/h (2 Bft) 97,96 %
10.05.2019 17:44 15,6 C 13,9 C 13,9 C 65 % 1008,9 hPa 0,0 l/m 0 min 0 min 49 W/m 19,3 km/h (3 Bft) 95,74 %
10.05.2019 17:46 15,3 C 13,3 C 13,3 C 70 % 1009,1 hPa 0,0 l/m 0 min 0 min 34 W/m 22,5 km/h (4 Bft) 97,87 %
10.05.2019 17:48 14,9 C 12,8 C 12,8 C 71 % 1009,2 hPa 0,0 l/m 0 min 0 min 19 W/m 22,5 km/h (4 Bft) 95,74 %
10.05.2019 17:50 14,5 C 12,2 C 12,2 C 72 % 1009,3 hPa 0,0 l/m 0 min 0 min 12 W/m 19,3 km/h (3 Bft) 97,87 %
10.05.2019 17:52 14,2 C 11,1 C 11,7 C 73 % 1009,3 hPa 0,0 l/m 0 min 2 min 10 W/m 16,1 km/h (3 Bft) 97,87 %
10.05.2019 17:54 14,1 C 10,0 C 10,0 C 75 % 1009,5 hPa 0,4 l/m 0 min 2 min 12 W/m 16,1 km/h (3 Bft) 97,83 %
10.05.2019 17:56 13,8 C 9,4 C 9,4 C 77 % 1009,5 hPa 0,6 l/m 0 min 2 min 13 W/m 9,7 km/h (2 Bft) 97,87 %
10.05.2019 17:58 13,7 C 8,9 C 9,4 C 78 % 1009,7 hPa 0,6 l/m 0 min 2 min 19 W/m 16,1 km/h (3 Bft) 97,87 %
10.05.2019 18:00 13,5 C 8,9 C 9,4 C 79 % 1009,7 hPa 0,6 l/m 0 min 2 min 26 W/m 9,7 km/h (2 Bft) 95,74 %
10.05.2019 18:02 13,3 C 8,9 C 8,9 C 80 % 1009,4 hPa 0,4 l/m 0 min 2 min 34 W/m 6,4 km/h (2 Bft) 95,74 %
10.05.2019 18:04 13,1 C 8,9 C 8,9 C 80 % 1009,4 hPa 0,2 l/m 0 min 2 min 40 W/m 6,4 km/h (2 Bft) 97,87 %
10.05.2019 18:08 12,7 C 8,9 C 8,9 C 83 % 1009,2 hPa 0,0 l/m 0 min 4 min 52 W/m 3,2 km/h (1 Bft) 97,85 %
10.05.2019 18:10 12,6 C 9,4 C 8,9 C 83 % 1009,2 hPa 0,0 l/m 0 min 2 min 73 W/m 0,0 km/h (0 Bft) 97,87 %
10.05.2019 18:12 12,5 C 9,4 C 9,4 C 83 % 1009,2 hPa 0,0 l/m 0 min 0 min 93 W/m 3,2 km/h (1 Bft) 97,87 %
10.05.2019 18:14 12,4 C 9,4 C 9,4 C 84 % 1009,2 hPa 0,0 l/m 0 min 0 min 98 W/m 3,2 km/h (1 Bft) 97,87 %
10.05.2019 18:16 12,3 C 9,4 C 9,4 C 84 % 1009,1 hPa 0,0 l/m 0 min 0 min 95 W/m 3,2 km/h (1 Bft) 97,87 %
10.05.2019 18:18 12,2 C 10,0 C 9,4 C 85 % 1009,1 hPa 0,0 l/m 0 min 0 min 96 W/m 6,4 km/h (2 Bft) 100,00 %
10.05.2019 18:20 12,2 C 10,0 C 9,4 C 85 % 1009,1 hPa 0,0 l/m 0 min 0 min 96 W/m 6,4 km/h (2 Bft) 100,00 %
10.05.2019 18:22 12,1 C 10,0 C 9,4 C 86 % 1009,1 hPa 0,0 l/m 0 min 0 min 103 W/m 6,4 km/h (2 Bft) 100,00 %
10.05.2019 18:24 12,1 C 10,0 C 9,4 C 86 % 1009,1 hPa 0,0 l/m 0 min 0 min 119 W/m 6,4 km/h (2 Bft) 100,00 %
10.05.2019 18:26 12,0 C 10,0 C 10,0 C 87 % 1009,2 hPa 0,0 l/m 0 min 0 min 158 W/m 9,7 km/h (2 Bft) 97,87 %
10.05.2019 18:28 11,9 C 10,0 C 10,0 C 87 % 1009,2 hPa 0,0 l/m 0 min 0 min 165 W/m 9,7 km/h (2 Bft) 100,00 %
10.05.2019 18:30 11,9 C 10,6 C 10,0 C 88 % 1009,2 hPa 0,0 l/m 2 min 0 min 195 W/m 6,4 km/h (2 Bft) 100,00 %
10.05.2019 18:32 11,9 C 10,6 C 10,0 C 88 % 1009,2 hPa 0,0 l/m 2 min 0 min 236 W/m 9,7 km/h (2 Bft) 100,00 %
10.05.2019 18:34 11,9 C 10,6 C 10,0 C 89 % 1009,1 hPa 0,0 l/m 2 min 0 min 212 W/m 6,4 km/h (2 Bft) 97,87 %
10.05.2019 18:36 11,9 C 11,1 C 10,0 C 89 % 1009,1 hPa 0,0 l/m 2 min 0 min 206 W/m 9,7 km/h (2 Bft) 100,00 %
10.05.2019 18:38 11,9 C 11,1 C 10,0 C 89 % 1009,2 hPa 0,0 l/m 2 min 0 min 186 W/m 6,4 km/h (2 Bft) 100,00 %
10.05.2019 18:40 11,9 C 11,1 C 10,0 C 90 % 1009,1 hPa 0,0 l/m 0 min 0 min 164 W/m 9,7 km/h (2 Bft) 100,00 %
10.05.2019 18:42 11,9 C 11,1 C 10,0 C 90 % 1009,1 hPa 0,0 l/m 0 min 0 min 158 W/m 6,4 km/h (2 Bft) 100,00 %
10.05.2019 18:44 11,9 C 11,1 C 10,0 C 90 % 1009,1 hPa 0,0 l/m 0 min 0 min 158 W/m 6,4 km/h (2 Bft) 100,00 %
10.05.2019 18:46 11,8 C 10,6 C 10,0 C 90 % 1009,1 hPa 0,0 l/m 0 min 0 min 143 W/m 9,7 km/h (2 Bft) 97,87 %
10.05.2019 18:48 11,8 C 10,6 C 10,0 C 91 % 1009,0 hPa 0,0 l/m 0 min 0 min 122 W/m 3,2 km/h (1 Bft) 100,00 %
10.05.2019 18:50 11,8 C 10,6 C 10,0 C 91 % 1009,0 hPa 0,0 l/m 0 min 0 min 124 W/m 6,4 km/h (2 Bft) 100,00 %
10.05.2019 18:52 11,7 C 10,6 C 10,0 C 91 % 1009,0 hPa 0,0 l/m 0 min 0 min 124 W/m 3,2 km/h (1 Bft) 97,83 %
10.05.2019 18:54 11,7 C 10,6 C 10,0 C 91 % 1009,0 hPa 0,0 l/m 0 min 0 min 111 W/m 6,4 km/h (2 Bft) 100,00 %
10.05.2019 18:56 11,7 C 10,0 C 9,4 C 91 % 1008,9 hPa 0,0 l/m 0 min 0 min 115 W/m 9,7 km/h (2 Bft) 100,00 %
10.05.2019 18:58 11,7 C 10,0 C 9,4 C 91 % 1008,9 hPa 0,0 l/m 0 min 0 min 138 W/m 9,7 km/h (2 Bft) 95,74 %
10.05.2019 19:00 11,6 C 10,0 C 9,4 C 91 % 1008,9 hPa 0,0 l/m 2 min 0 min 226 W/m 6,4 km/h (2 Bft) 97,87 %
10.05.2019 19:02 11,6 C 10,6 C 9,4 C 91 % 1008,9 hPa 0,0 l/m 2 min 0 min 278 W/m 6,4 km/h (2 Bft) 97,87 %
10.05.2019 19:04 11,6 C 10,6 C 9,4 C 91 % 1008,9 hPa 0,0 l/m 2 min 0 min 265 W/m 3,2 km/h (1 Bft) 100,00 %
10.05.2019 19:06 11,6 C 10,6 C 9,4 C 91 % 1008,9 hPa 0,0 l/m 2 min 0 min 260 W/m 9,7 km/h (2 Bft) 100,00 %
10.05.2019 19:08 11,6 C 10,6 C 9,4 C 91 % 1008,9 hPa 0,0 l/m 2 min 0 min 259 W/m 9,7 km/h (2 Bft) 97,14 %
10.05.2019 19:10 11,6 C 10,6 C 9,4 C 91 % 1008,9 hPa 0,0 l/m 2 min 0 min 213 W/m 9,7 km/h (2 Bft) 97,87 %
10.05.2019 19:12 11,5 C 10,0 C 9,4 C 91 % 1008,9 hPa 0,0 l/m 0 min 0 min 125 W/m 9,7 km/h (2 Bft) 97,87 %
10.05.2019 19:14 11,5 C 10,0 C 9,4 C 91 % 1008,8 hPa 0,0 l/m 0 min 0 min 74 W/m 9,7 km/h (2 Bft) 93,62 %
10.05.2019 19:16 11,4 C 10,0 C 9,4 C 91 % 1008,8 hPa 0,0 l/m 0 min 0 min 69 W/m 6,4 km/h (2 Bft) 95,65 %
10.05.2019 19:18 11,4 C 10,0 C 9,4 C 91 % 1008,8 hPa 0,0 l/m 0 min 0 min 65 W/m 6,4 km/h (2 Bft) 95,74 %
10.05.2019 19:20 11,3 C 10,0 C 9,4 C 91 % 1008,8 hPa 0,0 l/m 0 min 0 min 63 W/m 3,2 km/h (1 Bft) 95,74 %
10.05.2019 19:22 11,3 C 10,0 C 9,4 C 91 % 1008,8 hPa 0,0 l/m 0 min 0 min 59 W/m 6,4 km/h (2 Bft) 95,74 %
10.05.2019 19:24 11,3 C 9,4 C 9,4 C 91 % 1008,7 hPa 0,0 l/m 0 min 0 min 57 W/m 9,7 km/h (2 Bft) 95,74 %
10.05.2019 19:26 11,2 C 9,4 C 8,9 C 91 % 1008,8 hPa 0,0 l/m 0 min 0 min 54 W/m 12,9 km/h (3 Bft) 95,74 %
10.05.2019 19:28 11,2 C 9,4 C 8,9 C 91 % 1008,8 hPa 0,0 l/m 0 min 0 min 53 W/m 6,4 km/h (2 Bft) 95,65 %
10.05.2019 19:30 11,2 C 9,4 C 8,9 C 91 % 1008,8 hPa 0,0 l/m 0 min 0 min 52 W/m 3,2 km/h (1 Bft) 95,74 %
10.05.2019 19:32 11,1 C 9,4 C 8,9 C 91 % 1008,7 hPa 0,0 l/m 0 min 0 min 51 W/m 6,4 km/h (2 Bft) 95,74 %
10.05.2019 19:34 11,1 C 9,4 C 8,9 C 91 % 1008,7 hPa 0,0 l/m 0 min 0 min 50 W/m 3,2 km/h (1 Bft) 95,74 %
10.05.2019 19:36 11,1 C 9,4 C 8,9 C 91 % 1008,7 hPa 0,0 l/m 0 min 0 min 49 W/m 6,4 km/h (2 Bft) 94,83 %
10.05.2019 19:38 11,0 C 9,4 C 8,9 C 91 % 1008,8 hPa 0,0 l/m 0 min 0 min 47 W/m 3,2 km/h (1 Bft) 94,44 %
10.05.2019 19:40 11,0 C 9,4 C 8,9 C 91 % 1008,7 hPa 0,0 l/m 0 min 0 min 47 W/m 3,2 km/h (1 Bft) 95,65 %
10.05.2019 19:42 11,0 C 9,4 C 8,9 C 91 % 1008,8 hPa 0,0 l/m 0 min 0 min 46 W/m 3,2 km/h (1 Bft) 95,74 %
10.05.2019 19:44 10,9 C 9,4 C 8,9 C 91 % 1008,8 hPa 0,0 l/m 0 min 0 min 46 W/m 6,4 km/h (2 Bft) 93,62 %
10.05.2019 19:46 10,9 C 9,4 C 8,9 C 91 % 1008,8 hPa 0,0 l/m 0 min 0 min 46 W/m 3,2 km/h (1 Bft) 93,62 %
10.05.2019 19:48 10,9 C 9,4 C 8,9 C 91 % 1008,9 hPa 0,0 l/m 0 min 0 min 46 W/m 9,7 km/h (2 Bft) 97,87 %
10.05.2019 19:50 10,9 C 9,4 C 8,3 C 91 % 1008,9 hPa 0,0 l/m 0 min 0 min 46 W/m 6,4 km/h (2 Bft) 97,83 %
10.05.2019 19:52 10,8 C 8,9 C 8,3 C 91 % 1008,9 hPa 0,0 l/m 0 min 0 min 45 W/m 6,4 km/h (2 Bft) 97,87 %
10.05.2019 19:54 10,8 C 9,4 C 8,3 C 91 % 1008,9 hPa 0,0 l/m 0 min 0 min 43 W/m 3,2 km/h (1 Bft) 97,87 %
10.05.2019 19:56 10,8 C 8,9 C 8,3 C 91 % 1008,8 hPa 0,0 l/m 0 min 0 min 37 W/m 3,2 km/h (1 Bft) 93,62 %
10.05.2019 19:58 10,8 C 8,9 C 8,3 C 91 % 1008,9 hPa 0,0 l/m 0 min 0 min 33 W/m 3,2 km/h (1 Bft) 97,87 %
10.05.2019 20:00 10,7 C 8,9 C 8,3 C 91 % 1008,9 hPa 0,0 l/m 0 min 0 min 32 W/m 3,2 km/h (1 Bft) 97,87 %
10.05.2019 20:02 10,7 C 8,9 C 8,3 C 91 % 1008,9 hPa 0,0 l/m 0 min 0 min 28 W/m 0,0 km/h (0 Bft) 97,83 %
10.05.2019 20:04 10,7 C 8,9 C 8,3 C 90 % 1009,0 hPa 0,0 l/m 0 min 0 min 26 W/m 0,0 km/h (0 Bft) 97,87 %
10.05.2019 20:06 10,7 C 8,3 C 8,3 C 90 % 1008,9 hPa 0,0 l/m 0 min 0 min 26 W/m 0,0 km/h (0 Bft) 93,22 %
10.05.2019 20:08 10,6 C 8,3 C 7,8 C 90 % 1008,9 hPa 0,0 l/m 0 min 0 min 29 W/m 0,0 km/h (0 Bft) 97,14 %
10.05.2019 20:10 10,6 C 8,3 C 7,8 C 90 % 1009,0 hPa 0,0 l/m 0 min 0 min 30 W/m 0,0 km/h (0 Bft) 97,87 %
10.05.2019 20:12 10,6 C 8,3 C 7,8 C 90 % 1009,1 hPa 0,0 l/m 0 min 0 min 29 W/m 0,0 km/h (0 Bft) 97,87 %
10.05.2019 20:14 10,6 C 8,3 C 7,8 C 90 % 1009,0 hPa 0,0 l/m 0 min 0 min 24 W/m 0,0 km/h (0 Bft) 100,00 %
10.05.2019 20:16 10,5 C 8,3 C 7,8 C 90 % 1009,0 hPa 0,0 l/m 0 min 0 min 19 W/m 0,0 km/h (0 Bft) 100,00 %
10.05.2019 20:18 10,5 C 8,3 C 7,8 C 90 % 1009,0 hPa 0,0 l/m 0 min 0 min 18 W/m 0,0 km/h (0 Bft) 95,74 %
10.05.2019 20:20 10,5 C 8,3 C 7,8 C 90 % 1009,1 hPa 0,0 l/m 0 min 0 min 18 W/m 0,0 km/h (0 Bft) 100,00 %
10.05.2019 20:22 10,4 C 8,3 C 7,8 C 90 % 1009,1 hPa 0,0 l/m 0 min 0 min 19 W/m 0,0 km/h (0 Bft) 97,87 %
10.05.2019 20:24 10,4 C 8,3 C 7,8 C 90 % 1009,1 hPa 0,0 l/m 0 min 0 min 19 W/m 0,0 km/h (0 Bft) 100,00 %
10.05.2019 20:26 10,4 C 8,3 C 7,8 C 90 % 1009,1 hPa 0,0 l/m 0 min 0 min 18 W/m 0,0 km/h (0 Bft) 95,65 %
10.05.2019 20:28 10,3 C 8,3 C 7,8 C 90 % 1009,2 hPa 0,0 l/m 0 min 0 min 18 W/m 0,0 km/h (0 Bft) 97,87 %
10.05.2019 20:30 10,3 C 8,3 C 7,8 C 90 % 1009,2 hPa 0,0 l/m 0 min 0 min 19 W/m 0,0 km/h (0 Bft) 93,62 %
10.05.2019 20:32 10,3 C 8,3 C 7,8 C 90 % 1009,1 hPa 0,0 l/m 0 min 0 min 19 W/m 0,0 km/h (0 Bft) 97,87 %
10.05.2019 20:34 10,2 C 8,3 C 7,8 C 90 % 1009,1 hPa 0,0 l/m 0 min 0 min 19 W/m 0,0 km/h (0 Bft) 97,87 %
10.05.2019 20:36 10,2 C 8,3 C 7,8 C 90 % 1009,1 hPa 0,0 l/m 0 min 0 min 19 W/m 0,0 km/h (0 Bft) 95,74 %
10.05.2019 20:38 10,2 C 8,3 C 7,8 C 90 % 1009,1 hPa 0,0 l/m 0 min 0 min 19 W/m 0,0 km/h (0 Bft) 97,83 %
10.05.2019 20:40 10,2 C 8,3 C 7,8 C 90 % 1009,1 hPa 0,0 l/m 0 min 0 min 18 W/m 0,0 km/h (0 Bft) 97,87 %
10.05.2019 20:42 10,2 C 8,3 C 7,8 C 90 % 1009,0 hPa 0,0 l/m 0 min 0 min 17 W/m 0,0 km/h (0 Bft) 97,87 %
10.05.2019 20:44 10,1 C 8,3 C 7,8 C 90 % 1009,2 hPa 0,0 l/m 0 min 0 min 13 W/m 0,0 km/h (0 Bft) 97,87 %
10.05.2019 20:46 10,1 C 8,3 C 7,8 C 90 % 1009,1 hPa 0,0 l/m 0 min 0 min 11 W/m 0,0 km/h (0 Bft) 97,87 %
10.05.2019 20:48 10,1 C 8,3 C 7,8 C 90 % 1009,1 hPa 0,0 l/m 0 min 0 min 10 W/m 0,0 km/h (0 Bft) 97,87 %
10.05.2019 20:50 10,1 C 8,3 C 7,8 C 91 % 1009,1 hPa 0,0 l/m 0 min 0 min 9 W/m 0,0 km/h (0 Bft) 97,83 %
10.05.2019 20:52 10,1 C 8,3 C 7,8 C 91 % 1009,1 hPa 0,0 l/m 0 min 0 min 7 W/m 0,0 km/h (0 Bft) 93,62 %
10.05.2019 20:54 10,1 C 8,3 C 7,8 C 91 % 1009,1 hPa 0,0 l/m 0 min 0 min 7 W/m 0,0 km/h (0 Bft) 95,74 %
10.05.2019 20:56 10,0 C 8,3 C 7,8 C 91 % 1009,0 hPa 0,0 l/m 0 min 0 min 6 W/m 0,0 km/h (0 Bft) 97,87 %
10.05.2019 20:58 10,0 C 8,3 C 7,8 C 91 % 1009,0 hPa 0,0 l/m 0 min 0 min 5 W/m 0,0 km/h (0 Bft) 93,62 %
10.05.2019 21:00 10,0 C 8,3 C 7,8 C 91 % 1009,0 hPa 0,0 l/m 0 min 0 min 5 W/m 0,0 km/h (0 Bft) 95,65 %
10.05.2019 21:02 10,0 C 8,3 C 7,8 C 91 % 1009,0 hPa 0,0 l/m 0 min 0 min 2 W/m 0,0 km/h (0 Bft) 97,87 %
10.05.2019 21:04 9,9 C 8,3 C 7,8 C 91 % 1009,0 hPa 0,0 l/m 0 min 0 min 0 W/m 0,0 km/h (0 Bft) 95,74 %
10.05.2019 21:06 9,9 C 8,3 C 7,8 C 91 % 1008,9 hPa 0,0 l/m 0 min 0 min 0 W/m 0,0 km/h (0 Bft) 95,74 %
10.05.2019 21:08 9,9 C 8,3 C 7,8 C 91 % 1009,0 hPa 0,0 l/m 0 min 0 min 0 W/m 0,0 km/h (0 Bft) 95,74 %
10.05.2019 21:10 9,9 C 8,3 C 7,8 C 91 % 1008,9 hPa 0,0 l/m 0 min 0 min 0 W/m 0,0 km/h (0 Bft) 95,74 %
10.05.2019 21:12 9,9 C 8,3 C 7,8 C 91 % 1009,1 hPa 0,0 l/m 0 min 0 min 0 W/m 0,0 km/h (0 Bft) 93,48 %
10.05.2019 21:14 9,9 C 8,3 C 7,8 C 92 % 1009,1 hPa 0,0 l/m 0 min 0 min 0 W/m 0,0 km/h (0 Bft) 97,87 %
10.05.2019 21:16 9,8 C 8,3 C 7,8 C 92 % 1009,0 hPa 0,0 l/m 0 min 0 min 0 W/m 0,0 km/h (0 Bft) 95,74 %
10.05.2019 21:18 9,8 C 7,8 C 7,8 C 92 % 1009,1 hPa 0,0 l/m 0 min 0 min 0 W/m 0,0 km/h (0 Bft) 97,87 %
10.05.2019 21:20 9,8 C 7,8 C 7,8 C 92 % 1009,0 hPa 0,0 l/m 0 min 0 min 0 W/m 0,0 km/h (0 Bft) 97,87 %
10.05.2019 21:22 9,8 C 7,8 C 7,8 C 92 % 1009,1 hPa 0,0 l/m 0 min 0 min 0 W/m 0,0 km/h (0 Bft) 97,87 %
10.05.2019 21:24 9,8 C 7,8 C 7,8 C 92 % 1009,1 hPa 0,0 l/m 0 min 0 min 0 W/m 0,0 km/h (0 Bft) 97,83 %
10.05.2019 21:26 9,7 C 8,3 C 7,8 C 92 % 1009,2 hPa 0,0 l/m 0 min 0 min 0 W/m 0,0 km/h (0 Bft) 97,87 %
10.05.2019 21:28 9,7 C 7,8 C 7,8 C 92 % 1009,3 hPa 0,0 l/m 0 min 0 min 0 W/m 0,0 km/h (0 Bft) 95,74 %
10.05.2019 21:30 9,7 C 7,8 C 7,8 C 92 % 1009,3 hPa 0,0 l/m 0 min 0 min 0 W/m 0,0 km/h (0 Bft) 95,74 %
10.05.2019 21:32 9,7 C 7,8 C 7,8 C 92 % 1009,4 hPa 0,0 l/m 0 min 0 min 0 W/m 0,0 km/h (0 Bft) 97,87 %
10.05.2019 21:34 9,7 C 7,8 C 7,8 C 92 % 1009,4 hPa 0,0 l/m 0 min 0 min 0 W/m 0,0 km/h (0 Bft) 97,87 %
10.05.2019 21:36 9,7 C 7,8 C 7,2 C 92 % 1009,4 hPa 0,0 l/m 0 min 0 min 0 W/m 0,0 km/h (0 Bft) 97,83 %
10.05.2019 21:38 9,6 C 7,8 C 7,2 C 92 % 1009,4 hPa 0,0 l/m 0 min 0 min 0 W/m 0,0 km/h (0 Bft) 97,87 %
10.05.2019 21:40 9,6 C 7,8 C 7,2 C 92 % 1009,5 hPa 0,0 l/m 0 min 0 min 0 W/m 0,0 km/h (0 Bft) 100,00 %
10.05.2019 21:42 9,6 C 7,8 C 7,2 C 92 % 1009,5 hPa 0,0 l/m 0 min 0 min 0 W/m 0,0 km/h (0 Bft) 100,00 %
10.05.2019 21:44 9,6 C 7,8 C 7,2 C 92 % 1009,5 hPa 0,0 l/m 0 min 0 min 0 W/m 0,0 km/h (0 Bft) 100,00 %
10.05.2019 21:46 9,5 C 7,8 C 7,2 C 92 % 1009,5 hPa 0,0 l/m 0 min 0 min 0 W/m 0,0 km/h (0 Bft) 97,87 %
10.05.2019 21:48 9,5 C 7,8 C 7,2 C 92 % 1009,5 hPa 0,0 l/m 0 min 0 min 0 W/m 0,0 km/h (0 Bft) 100,00 %
10.05.2019 21:50 9,4 C 7,8 C 7,2 C 92 % 1009,5 hPa 0,0 l/m 0 min 0 min 0 W/m 0,0 km/h (0 Bft) 100,00 %
10.05.2019 21:52 9,4 C 7,8 C 7,2 C 92 % 1009,6 hPa 0,0 l/m 0 min 0 min 0 W/m 0,0 km/h (0 Bft) 97,87 %
10.05.2019 21:54 9,4 C 7,8 C 7,2 C 92 % 1009,5 hPa 0,0 l/m 0 min 0 min 0 W/m 0,0 km/h (0 Bft) 100,00 %
10.05.2019 21:56 9,4 C 7,8 C 7,2 C 92 % 1009,5 hPa 0,0 l/m 0 min 0 min 0 W/m 0,0 km/h (0 Bft) 100,00 %
10.05.2019 21:58 9,4 C 7,8 C 7,2 C 92 % 1009,5 hPa 0,0 l/m 0 min 0 min 0 W/m 0,0 km/h (0 Bft) 97,87 %
10.05.2019 22:00 9,3 C 7,8 C 7,2 C 92 % 1009,5 hPa 0,0 l/m 0 min 0 min 0 W/m 0,0 km/h (0 Bft) 100,00 %
10.05.2019 22:02 9,3 C 7,8 C 7,2 C 92 % 1009,5 hPa 0,0 l/m 0 min 0 min 0 W/m 0,0 km/h (0 Bft) 95,74 %
10.05.2019 22:04 9,3 C 7,8 C 7,2 C 92 % 1009,5 hPa 0,0 l/m 0 min 0 min 0 W/m 0,0 km/h (0 Bft) 100,00 %
10.05.2019 22:06 9,3 C 7,8 C 7,2 C 92 % 1009,5 hPa 0,0 l/m 0 min 0 min 0 W/m 0,0 km/h (0 Bft) 100,00 %
10.05.2019 22:08 9,2 C 7,8 C 7,2 C 92 % 1009,5 hPa 0,0 l/m 0 min 0 min 0 W/m 0,0 km/h (0 Bft) 100,00 %
10.05.2019 22:10 9,2 C 7,8 C 7,2 C 93 % 1009,5 hPa 0,0 l/m 0 min 0 min 0 W/m 0,0 km/h (0 Bft) 100,00 %
10.05.2019 22:12 9,2 C 7,8 C 7,2 C 93 % 1009,5 hPa 0,0 l/m 0 min 0 min 0 W/m 0,0 km/h (0 Bft) 97,83 %
10.05.2019 22:14 9,2 C 7,8 C 7,2 C 93 % 1009,5 hPa 0,0 l/m 0 min 0 min 0 W/m 0,0 km/h (0 Bft) 100,00 %
10.05.2019 22:16 9,2 C 7,8 C 7,2 C 93 % 1009,5 hPa 0,0 l/m 0 min 0 min 0 W/m 0,0 km/h (0 Bft) 100,00 %
10.05.2019 22:18 9,2 C 7,8 C 7,2 C 93 % 1009,5 hPa 0,0 l/m 0 min 0 min 0 W/m 0,0 km/h (0 Bft) 97,87 %
10.05.2019 22:20 9,2 C 7,8 C 7,2 C 93 % 1009,5 hPa 0,0 l/m 0 min 0 min 0 W/m 0,0 km/h (0 Bft) 100,00 %
10.05.2019 22:22 9,1 C 7,8 C 7,2 C 93 % 1009,5 hPa 0,0 l/m 0 min 0 min 0 W/m 0,0 km/h (0 Bft) 100,00 %
10.05.2019 22:24 9,1 C 7,8 C 7,2 C 93 % 1009,5 hPa 0,0 l/m 0 min 0 min 0 W/m 0,0 km/h (0 Bft) 100,00 %
10.05.2019 22:26 9,1 C 7,8 C 7,2 C 93 % 1009,5 hPa 0,0 l/m 0 min 0 min 0 W/m 0,0 km/h (0 Bft) 100,00 %
10.05.2019 22:28 9,1 C 7,8 C 7,2 C 93 % 1009,5 hPa 0,0 l/m 0 min 0 min 0 W/m 0,0 km/h (0 Bft) 100,00 %
10.05.2019 22:30 9,1 C 7,8 C 7,2 C 93 % 1009,5 hPa 0,0 l/m 0 min 0 min 0 W/m 0,0 km/h (0 Bft) 100,00 %
10.05.2019 22:32 9,1 C 7,8 C 7,2 C 93 % 1009,4 hPa 0,0 l/m 0 min 0 min 0 W/m 0,0 km/h (0 Bft) 100,00 %
10.05.2019 22:34 9,1 C 7,8 C 7,2 C 93 % 1009,4 hPa 0,0 l/m 0 min 0 min 0 W/m 0,0 km/h (0 Bft) 100,00 %
10.05.2019 22:36 9,1 C 7,8 C 7,2 C 93 % 1009,4 hPa 0,0 l/m 0 min 0 min 0 W/m 0,0 km/h (0 Bft) 100,00 %
10.05.2019 22:38 9,0 C 7,8 C 7,2 C 93 % 1009,4 hPa 0,0 l/m 0 min 0 min 0 W/m 0,0 km/h (0 Bft) 100,00 %
10.05.2019 22:40 9,0 C 7,8 C 7,2 C 93 % 1009,5 hPa 0,0 l/m 0 min 0 min 0 W/m 0,0 km/h (0 Bft) 100,00 %
10.05.2019 22:42 9,0 C 7,8 C 7,2 C 93 % 1009,5 hPa 0,0 l/m 0 min 0 min 0 W/m 0,0 km/h (0 Bft) 100,00 %
10.05.2019 22:44 9,0 C 7,8 C 7,2 C 93 % 1009,4 hPa 0,0 l/m 0 min 0 min 0 W/m 0,0 km/h (0 Bft) 100,00 %
10.05.2019 22:46 9,0 C 7,8 C 7,8 C 93 % 1009,5 hPa 0,0 l/m 0 min 0 min 0 W/m 0,0 km/h (0 Bft) 100,00 %
10.05.2019 22:48 9,0 C 7,8 C 7,8 C 93 % 1009,5 hPa 0,0 l/m 0 min 0 min 0 W/m 0,0 km/h (0 Bft) 100,00 %
10.05.2019 22:50 9,0 C 7,8 C 7,2 C 93 % 1009,5 hPa 0,0 l/m 0 min 0 min 0 W/m 0,0 km/h (0 Bft) 100,00 %
10.05.2019 22:52 8,9 C 7,8 C 7,2 C 93 % 1009,5 hPa 0,0 l/m 0 min 0 min 0 W/m 0,0 km/h (0 Bft) 100,00 %
10.05.2019 22:54 8,9 C 7,8 C 7,2 C 93 % 1009,4 hPa 0,0 l/m 0 min 0 min 0 W/m 0,0 km/h (0 Bft) 100,00 %
10.05.2019 22:56 8,9 C 7,8 C 7,2 C 93 % 1009,2 hPa 0,0 l/m 0 min 0 min 0 W/m 0,0 km/h (0 Bft) 100,00 %
10.05.2019 22:58 8,9 C 7,8 C 7,2 C 94 % 1009,3 hPa 0,0 l/m 0 min 0 min 0 W/m 0,0 km/h (0 Bft) 95,65 %
10.05.2019 23:00 8,9 C 7,8 C 7,2 C 94 % 1009,3 hPa 0,0 l/m 0 min 0 min 0 W/m 0,0 km/h (0 Bft) 93,62 %
10.05.2019 23:02 8,9 C 7,8 C 7,2 C 94 % 1009,4 hPa 0,0 l/m 0 min 0 min 0 W/m 0,0 km/h (0 Bft) 95,74 %
10.05.2019 23:04 8,9 C 7,8 C 7,2 C 94 % 1009,4 hPa 0,0 l/m 0 min 0 min 0 W/m 0,0 km/h (0 Bft) 97,87 %
10.05.2019 23:06 8,9 C 7,8 C 7,8 C 94 % 1009,4 hPa 0,0 l/m 0 min 0 min 0 W/m 0,0 km/h (0 Bft) 93,62 %
10.05.2019 23:08 8,9 C 7,8 C 7,8 C 94 % 1009,4 hPa 0,0 l/m 0 min 0 min 0 W/m 0,0 km/h (0 Bft) 95,74 %
10.05.2019 23:10 8,9 C 7,8 C 7,8 C 94 % 1009,4 hPa 0,0 l/m 0 min 0 min 0 W/m 0,0 km/h (0 Bft) 95,65 %
10.05.2019 23:12 8,9 C 7,8 C 7,2 C 94 % 1009,4 hPa 0,0 l/m 0 min 0 min 0 W/m 0,0 km/h (0 Bft) 97,87 %
10.05.2019 23:14 8,9 C 7,8 C 7,2 C 94 % 1009,4 hPa 0,0 l/m 0 min 0 min 0 W/m 0,0 km/h (0 Bft) 91,49 %
10.05.2019 23:16 8,9 C 7,8 C 7,2 C 94 % 1009,4 hPa 0,0 l/m 0 min 0 min 0 W/m 0,0 km/h (0 Bft) 95,74 %
10.05.2019 23:18 8,9 C 7,8 C 7,2 C 94 % 1009,3 hPa 0,0 l/m 0 min 0 min 0 W/m 0,0 km/h (0 Bft) 93,62 %
10.05.2019 23:20 8,9 C 7,8 C 7,2 C 94 % 1009,3 hPa 0,0 l/m 0 min 0 min 0 W/m 0,0 km/h (0 Bft) 93,62 %
10.05.2019 23:22 8,9 C 7,8 C 7,2 C 94 % 1009,3 hPa 0,0 l/m 0 min 0 min 0 W/m 0,0 km/h (0 Bft) 93,48 %
10.05.2019 23:24 8,9 C 7,8 C 7,2 C 94 % 1009,2 hPa 0,0 l/m 0 min 0 min 0 W/m 0,0 km/h (0 Bft) 95,74 %
10.05.2019 23:26 8,9 C 7,8 C 7,2 C 94 % 1009,3 hPa 0,0 l/m 0 min 0 min 0 W/m 0,0 km/h (0 Bft) 93,62 %
10.05.2019 23:28 8,9 C 7,8 C 7,2 C 94 % 1009,3 hPa 0,0 l/m 0 min 0 min 0 W/m 0,0 km/h (0 Bft) 93,62 %
10.05.2019 23:30 8,8 C 7,2 C 7,2 C 94 % 1009,2 hPa 0,0 l/m 0 min 0 min 0 W/m 0,0 km/h (0 Bft) 91,49 %
10.05.2019 23:32 8,8 C 7,2 C 7,2 C 94 % 1009,0 hPa 0,0 l/m 0 min 0 min 0 W/m 0,0 km/h (0 Bft) 93,48 %
10.05.2019 23:34 8,8 C 7,2 C 7,2 C 94 % 1008,9 hPa 0,0 l/m 0 min 0 min 0 W/m 0,0 km/h (0 Bft) 91,49 %
10.05.2019 23:36 8,8 C 7,2 C 7,2 C 94 % 1009,0 hPa 0,0 l/m 0 min 0 min 0 W/m 0,0 km/h (0 Bft) 93,62 %
10.05.2019 23:38 8,8 C 7,2 C 7,2 C 94 % 1008,9 hPa 0,0 l/m 0 min 0 min 0 W/m 0,0 km/h (0 Bft) 93,62 %
10.05.2019 23:40 8,8 C 7,2 C 7,2 C 94 % 1008,9 hPa 0,0 l/m 0 min 0 min 0 W/m 0,0 km/h (0 Bft) 93,62 %
10.05.2019 23:42 8,8 C 7,2 C 7,2 C 94 % 1008,9 hPa 0,0 l/m 0 min 0 min 0 W/m 0,0 km/h (0 Bft) 93,62 %
10.05.2019 23:44 8,8 C 7,2 C 7,2 C 94 % 1008,9 hPa 0,0 l/m 0 min 0 min 0 W/m 0,0 km/h (0 Bft) 93,48 %
10.05.2019 23:46 8,8 C 7,2 C 7,2 C 94 % 1009,0 hPa 0,0 l/m 0 min 0 min 0 W/m 0,0 km/h (0 Bft) 93,62 %
10.05.2019 23:48 8,7 C 7,2 C 7,2 C 94 % 1009,1 hPa 0,0 l/m 0 min 0 min 0 W/m 0,0 km/h (0 Bft) 91,49 %
10.05.2019 23:50 8,7 C 7,2 C 7,2 C 94 % 1009,1 hPa 0,0 l/m 0 min 0 min 0 W/m 0,0 km/h (0 Bft) 95,74 %
10.05.2019 23:52 8,7 C 7,2 C 7,2 C 94 % 1009,1 hPa 0,0 l/m 0 min 0 min 0 W/m 0,0 km/h (0 Bft) 95,74 %
10.05.2019 23:54 8,7 C 7,2 C 7,2 C 94 % 1009,0 hPa 0,0 l/m 0 min 0 min 0 W/m 0,0 km/h (0 Bft) 93,62 %
10.05.2019 23:56 8,7 C 7,2 C 7,2 C 94 % 1009,0 hPa 0,0 l/m 0 min 0 min 0 W/m 0,0 km/h (0 Bft) 91,30 %
10.05.2019 23:58 8,7 C 7,2 C 7,2 C 94 % 1009,0 hPa 0,0 l/m 0 min 0 min 0 W/m 0,0 km/h (0 Bft) 95,74 %
_ Min-Zeit 23:48 23:30 21:36 17:02 00:00 - - - - 00:00 00:02
Minimum _ 8,7 C 7,2 C 7,2 C 64 % 1001,4 hPa - - - - 0,0 km/h (0 Bft) 11,76 %
_ Max-Zeit 17:16 14:56 14:44 08:32 17:58 17:56 09:28 18:08 14:38 03:12 00:00
Maximum _ 16,6 C 21,1 C 19,4 C 97 % 1009,7 hPa 0,6 l/m 2 min 4 min 1090 W/m 29,0 km/h
O-SO (5 Bft)
100,00 %
Durchschnitt _ 11,0 C 10,6 C 9,8 C 89 % 1006,4 hPa #4,0 l/m #3:12 h #2:22 h 220 W/m 8,8 km/h (2 Bft) 97,35 %
© 2019 W. Hausmann